Time,TemperatureF,DewpointF,PressureIn,WindDirection,WindDirectionDegrees,WindSpeedMPH,WindSpeedGustMPH,Humidity,HourlyPrecipIn,Conditions,Clouds,dailyrainin,SoftwareType,DateUTC
2013-03-25 00:00:00,27.3,25.8,29.60,SE,144,0.0,0.0,94,0.00,,,0.15,Wunderground v.1.15,2013-03-25 04:00:00,
2013-03-25 00:01:00,27.3,25.8,29.60,SSE,152,0.0,0.0,94,0.00,,,0.15,Wunderground v.1.15,2013-03-25 04:01:00,
2013-03-25 00:02:00,27.3,25.8,29.59,SSE,157,0.0,0.0,94,0.00,,,0.15,Wunderground v.1.15,2013-03-25 04:02:00,
2013-03-25 00:07:00,27.3,25.8,29.60,SSW,205,0.0,0.0,94,0.00,,,0.15,Wunderground v.1.15,2013-03-25 04:07:00,
2013-03-25 00:08:00,27.3,25.8,29.60,SSW,206,0.0,0.0,94,0.00,,,0.15,Wunderground v.1.15,2013-03-25 04:08:00,
2013-03-25 00:09:00,27.3,25.8,29.60,SSW,207,0.0,0.0,94,0.00,,,0.15,Wunderground v.1.15,2013-03-25 04:09:00,
2013-03-25 00:13:00,27.3,26.0,29.60,SSW,207,0.0,0.0,94,0.00,,,0.15,weatherlink.com 1.10,2013-03-25 04:13:00,
2013-03-25 00:14:00,27.3,25.8,29.60,SSW,207,0.0,0.0,94,0.00,,,0.15,Wunderground v.1.15,2013-03-25 04:14:00,
2013-03-25 00:15:00,27.3,25.8,29.60,SSW,207,0.0,0.0,94,0.00,,,0.15,Wunderground v.1.15,2013-03-25 04:15:00,
2013-03-25 00:18:00,27.3,25.8,29.60,SSW,207,0.0,0.0,94,0.00,,,0.15,Wunderground v.1.15,2013-03-25 04:18:00,
2013-03-25 00:20:00,27.3,25.8,29.60,SSW,207,0.0,0.0,94,0.00,,,0.15,Wunderground v.1.15,2013-03-25 04:20:00,
2013-03-25 00:22:00,27.3,25.8,29.60,SSW,210,0.0,0.0,94,0.00,,,0.15,Wunderground v.1.15,2013-03-25 04:22:00,
2013-03-25 00:23:00,27.3,25.8,29.60,SSW,211,0.0,0.0,94,0.00,,,0.15,Wunderground v.1.15,2013-03-25 04:23:00,
2013-03-25 00:25:00,27.3,25.8,29.60,South,185,0.0,0.0,94,0.00,,,0.15,Wunderground v.1.15,2013-03-25 04:25:00,
2013-03-25 00:27:00,27.4,25.9,29.60,South,185,0.0,0.0,94,0.00,,,0.15,Wunderground v.1.15,2013-03-25 04:27:00,
2013-03-25 00:29:00,27.4,26.0,29.60,South,185,0.0,0.0,94,0.00,,,0.15,weatherlink.com 1.10,2013-03-25 04:29:00,
2013-03-25 00:31:00,27.4,25.9,29.60,South,190,0.0,0.0,94,0.00,,,0.15,Wunderground v.1.15,2013-03-25 04:31:00,
2013-03-25 00:32:00,27.4,25.9,29.60,SSW,202,0.0,0.0,94,0.00,,,0.15,Wunderground v.1.15,2013-03-25 04:32:00,
2013-03-25 00:34:00,27.4,25.9,29.60,West,277,0.0,0.0,94,0.00,,,0.15,Wunderground v.1.15,2013-03-25 04:34:00,
2013-03-25 00:36:00,27.4,25.9,29.60,West,281,0.0,0.0,94,0.00,,,0.15,Wunderground v.1.15,2013-03-25 04:36:00,
2013-03-25 00:38:00,27.4,25.9,29.60,West,281,0.0,0.0,94,0.00,,,0.15,Wunderground v.1.15,2013-03-25 04:38:00,
2013-03-25 00:39:00,27.4,25.9,29.60,West,281,0.0,0.0,94,0.00,,,0.15,Wunderground v.1.15,2013-03-25 04:39:00,
2013-03-25 00:40:00,27.4,25.9,29.60,West,281,0.0,0.0,94,0.00,,,0.15,Wunderground v.1.15,2013-03-25 04:40:00,
2013-03-25 00:42:00,27.4,25.9,29.60,West,281,0.0,0.0,94,0.00,,,0.15,Wunderground v.1.15,2013-03-25 04:42:00,
2013-03-25 00:43:00,27.4,25.9,29.60,West,281,0.0,0.0,94,0.00,,,0.15,Wunderground v.1.15,2013-03-25 04:43:00,
2013-03-25 00:46:00,27.5,26.0,29.60,West,281,0.0,0.0,94,0.00,,,0.15,Wunderground v.1.15,2013-03-25 04:46:00,
2013-03-25 00:47:00,27.5,26.0,29.60,West,281,0.0,0.0,94,0.00,,,0.15,Wunderground v.1.15,2013-03-25 04:47:00,
2013-03-25 00:50:00,27.5,26.0,29.60,WNW,287,0.0,0.0,94,0.00,,,0.15,Wunderground v.1.15,2013-03-25 04:50:00,
2013-03-25 00:51:00,27.5,26.0,29.60,WNW,288,0.0,0.0,94,0.00,,,0.15,Wunderground v.1.15,2013-03-25 04:51:00,
2013-03-25 00:52:00,27.5,26.0,29.60,WNW,288,0.0,0.0,94,0.00,,,0.15,Wunderground v.1.15,2013-03-25 04:52:00,
2013-03-25 00:53:00,27.5,26.0,29.60,WNW,287,0.0,0.0,94,0.00,,,0.15,Wunderground v.1.15,2013-03-25 04:53:00,
2013-03-25 00:55:00,27.5,26.0,29.60,WNW,287,0.0,0.0,94,0.00,,,0.15,Wunderground v.1.15,2013-03-25 04:55:00,
2013-03-25 00:56:00,27.5,26.0,29.60,WNW,287,0.0,0.0,94,0.00,,,0.15,Wunderground v.1.15,2013-03-25 04:56:00,
2013-03-25 00:59:00,27.5,26.0,29.60,WNW,287,0.0,0.0,94,0.00,,,0.15,Wunderground v.1.15,2013-03-25 04:59:00,
2013-03-25 01:02:00,27.5,26.0,29.60,WNW,287,0.0,0.0,94,0.00,,,0.15,Wunderground v.1.15,2013-03-25 05:02:00,
2013-03-25 01:04:00,27.5,26.0,29.60,WNW,287,0.0,0.0,94,0.00,,,0.15,Wunderground v.1.15,2013-03-25 05:04:00,
2013-03-25 01:05:00,27.5,26.0,29.60,WNW,287,0.0,0.0,94,0.00,,,0.15,Wunderground v.1.15,2013-03-25 05:05:00,
2013-03-25 01:09:00,27.5,26.0,29.60,WNW,283,0.0,0.0,94,0.00,,,0.15,Wunderground v.1.15,2013-03-25 05:09:00,
2013-03-25 01:10:00,27.5,26.0,29.60,WNW,283,0.0,0.0,94,0.00,,,0.15,Wunderground v.1.15,2013-03-25 05:10:00,
2013-03-25 01:12:00,27.5,26.0,29.60,WNW,283,0.0,0.0,94,0.00,,,0.15,Wunderground v.1.15,2013-03-25 05:12:00,
2013-03-25 01:15:00,27.4,25.9,29.59,West,280,0.0,0.0,94,0.00,,,0.15,Wunderground v.1.15,2013-03-25 05:15:00,
2013-03-25 01:18:00,27.4,25.9,29.59,West,280,0.0,0.0,94,0.00,,,0.15,Wunderground v.1.15,2013-03-25 05:18:00,
2013-03-25 01:20:00,27.4,25.9,29.59,North,355,0.0,0.0,94,0.00,,,0.15,Wunderground v.1.15,2013-03-25 05:20:00,
2013-03-25 01:24:00,27.4,25.9,29.58,East,82,0.0,0.0,94,0.00,,,0.15,Wunderground v.1.15,2013-03-25 05:24:00,
2013-03-25 01:26:00,27.4,25.9,29.59,East,82,0.0,0.0,94,0.00,,,0.15,Wunderground v.1.15,2013-03-25 05:26:00,
2013-03-25 01:27:00,27.4,25.9,29.58,East,82,0.0,0.0,94,0.00,,,0.15,Wunderground v.1.15,2013-03-25 05:27:00,
2013-03-25 01:32:00,27.4,25.9,29.58,ESE,111,0.0,0.0,94,0.00,,,0.15,Wunderground v.1.15,2013-03-25 05:32:00,
2013-03-25 01:33:00,27.4,25.9,29.58,ESE,111,0.0,0.0,94,0.00,,,0.15,Wunderground v.1.15,2013-03-25 05:33:00,
2013-03-25 01:34:00,27.4,25.9,29.58,ESE,111,0.0,0.0,94,0.00,,,0.15,Wunderground v.1.15,2013-03-25 05:34:00,
2013-03-25 01:38:00,27.4,25.9,29.58,ESE,111,0.0,0.0,94,0.00,,,0.15,Wunderground v.1.15,2013-03-25 05:38:00,
2013-03-25 01:39:00,27.4,25.9,29.58,ESE,111,0.0,0.0,94,0.00,,,0.15,Wunderground v.1.15,2013-03-25 05:39:00,
2013-03-25 01:40:00,27.3,25.8,29.58,ESE,111,0.0,0.0,94,0.00,,,0.15,Wunderground v.1.15,2013-03-25 05:40:00,
2013-03-25 01:42:00,27.3,25.8,29.57,ESE,109,0.0,0.0,94,0.00,,,0.15,Wunderground v.1.15,2013-03-25 05:42:00,
2013-03-25 01:44:00,27.3,25.8,29.57,East,101,0.0,0.0,94,0.00,,,0.15,Wunderground v.1.15,2013-03-25 05:44:00,
2013-03-25 01:45:00,27.3,25.8,29.57,East,88,0.0,0.0,94,0.00,,,0.15,Wunderground v.1.15,2013-03-25 05:45:00,
2013-03-25 01:50:00,27.2,25.7,29.57,East,92,0.0,0.0,94,0.00,,,0.15,Wunderground v.1.15,2013-03-25 05:50:00,
2013-03-25 01:51:00,27.2,25.7,29.57,East,93,0.0,0.0,94,0.00,,,0.15,Wunderground v.1.15,2013-03-25 05:51:00,
2013-03-25 01:54:00,27.2,25.7,29.57,ESE,110,0.0,0.0,94,0.00,,,0.15,Wunderground v.1.15,2013-03-25 05:54:00,
2013-03-25 01:56:00,27.2,25.7,29.57,ESE,108,0.0,0.0,94,0.00,,,0.15,Wunderground v.1.15,2013-03-25 05:56:00,
2013-03-25 01:58:00,27.2,25.4,29.57,ESE,108,0.0,0.0,93,0.00,,,0.15,Wunderground v.1.15,2013-03-25 05:58:00,
2013-03-25 01:59:00,27.1,25.3,29.56,ESE,115,0.0,0.0,93,0.00,,,0.15,Wunderground v.1.15,2013-03-25 05:59:00,
2013-03-25 02:01:00,27.2,25.4,29.56,East,81,0.0,0.0,93,0.00,,,0.15,Wunderground v.1.15,2013-03-25 06:01:00,
2013-03-25 02:03:00,27.1,25.6,29.56,East,99,0.0,0.0,94,0.00,,,0.15,Wunderground v.1.15,2013-03-25 06:03:00,
2013-03-25 02:04:00,27.1,25.6,29.56,East,89,0.0,0.0,94,0.00,,,0.15,Wunderground v.1.15,2013-03-25 06:04:00,
2013-03-25 02:07:00,27.1,25.3,29.56,ENE,76,0.0,0.0,93,0.00,,,0.15,Wunderground v.1.15,2013-03-25 06:07:00,
2013-03-25 02:08:00,27.1,25.3,29.57,East,85,0.0,0.0,93,0.00,,,0.15,Wunderground v.1.15,2013-03-25 06:08:00,
2013-03-25 02:09:00,27.1,25.6,29.56,East,85,0.0,0.0,94,0.00,,,0.15,Wunderground v.1.15,2013-03-25 06:09:00,
2013-03-25 02:12:00,27.1,25.3,29.56,East,87,0.0,0.0,93,0.00,,,0.15,Wunderground v.1.15,2013-03-25 06:12:00,
2013-03-25 02:13:00,27.1,25.3,29.56,East,87,0.0,0.0,93,0.00,,,0.15,Wunderground v.1.15,2013-03-25 06:13:00,
2013-03-25 02:15:00,27.1,25.3,29.57,East,87,0.0,0.0,93,0.00,,,0.15,Wunderground v.1.15,2013-03-25 06:15:00,
2013-03-25 02:18:00,27.1,25.3,29.57,East,89,0.0,0.0,93,0.00,,,0.15,Wunderground v.1.15,2013-03-25 06:18:00,
2013-03-25 02:20:00,27.1,25.3,29.57,East,92,0.0,0.0,93,0.00,,,0.15,Wunderground v.1.15,2013-03-25 06:20:00,
2013-03-25 02:21:00,27.1,25.3,29.57,ESE,104,0.0,0.0,93,0.00,,,0.15,Wunderground v.1.15,2013-03-25 06:21:00,
2013-03-25 02:23:00,27.1,25.3,29.56,ESE,105,0.0,0.0,93,0.00,,,0.15,Wunderground v.1.15,2013-03-25 06:23:00,
2013-03-25 02:25:00,27.1,25.3,29.56,ESE,105,0.0,0.0,93,0.00,,,0.15,Wunderground v.1.15,2013-03-25 06:25:00,
2013-03-25 02:26:00,27.1,25.3,29.56,ESE,105,0.0,0.0,93,0.00,,,0.15,Wunderground v.1.15,2013-03-25 06:26:00,
2013-03-25 02:28:00,27.1,25.3,29.56,ESE,105,0.0,0.0,93,0.00,,,0.15,Wunderground v.1.15,2013-03-25 06:28:00,
2013-03-25 02:29:00,27.1,25.6,29.56,ESE,105,0.0,0.0,94,0.00,,,0.15,Wunderground v.1.15,2013-03-25 06:29:00,
2013-03-25 02:31:00,27.1,25.3,29.56,East,95,0.0,0.0,93,0.00,,,0.15,Wunderground v.1.15,2013-03-25 06:31:00,
2013-03-25 02:33:00,27.1,25.3,29.56,East,95,0.0,0.0,93,0.00,,,0.15,Wunderground v.1.15,2013-03-25 06:33:00,
2013-03-25 02:34:00,27.1,25.3,29.56,ESE,105,0.0,0.0,93,0.00,,,0.15,Wunderground v.1.15,2013-03-25 06:34:00,
2013-03-25 02:36:00,27.1,25.3,29.56,ESE,105,0.0,0.0,93,0.00,,,0.15,Wunderground v.1.15,2013-03-25 06:36:00,
2013-03-25 02:38:00,27.1,25.6,29.56,ESE,105,0.0,0.0,94,0.00,,,0.15,Wunderground v.1.15,2013-03-25 06:38:00,
2013-03-25 02:39:00,27.1,25.6,29.56,ESE,105,0.0,0.0,94,0.00,,,0.15,Wunderground v.1.15,2013-03-25 06:39:00,
2013-03-25 02:41:00,27.1,25.6,29.56,ESE,122,0.0,0.0,94,0.00,,,0.15,Wunderground v.1.15,2013-03-25 06:41:00,
2013-03-25 02:44:00,27.1,25.3,29.56,SE,134,0.0,0.0,93,0.00,,,0.15,Wunderground v.1.15,2013-03-25 06:44:00,
2013-03-25 02:46:00,27.1,25.6,29.56,SE,136,0.0,0.0,94,0.00,,,0.15,Wunderground v.1.15,2013-03-25 06:46:00,
2013-03-25 02:49:00,27.1,25.6,29.56,SSE,163,0.0,0.0,94,0.00,,,0.15,Wunderground v.1.15,2013-03-25 06:49:00,
2013-03-25 02:52:00,27.1,25.6,29.56,SSE,165,0.0,0.0,94,0.00,,,0.15,Wunderground v.1.15,2013-03-25 06:52:00,
2013-03-25 02:54:00,27.1,25.6,29.56,SSW,193,0.0,0.0,94,0.00,,,0.15,Wunderground v.1.15,2013-03-25 06:54:00,
2013-03-25 02:55:00,27.1,25.6,29.56,SW,214,0.0,0.0,94,0.00,,,0.15,Wunderground v.1.15,2013-03-25 06:55:00,
2013-03-25 02:57:00,27.2,25.7,29.56,SSW,210,0.0,0.0,94,0.00,,,0.15,Wunderground v.1.15,2013-03-25 06:57:00,
2013-03-25 02:59:00,27.2,25.7,29.57,SW,234,0.0,0.0,94,0.00,,,0.15,Wunderground v.1.15,2013-03-25 06:59:00,
2013-03-25 03:00:00,27.2,25.7,29.57,SW,234,0.0,0.0,94,0.00,,,0.15,Wunderground v.1.15,2013-03-25 07:00:00,
2013-03-25 03:03:00,27.2,25.7,29.57,SW,234,0.0,0.0,94,0.00,,,0.15,Wunderground v.1.15,2013-03-25 07:03:00,
2013-03-25 03:05:00,27.2,25.4,29.57,SW,233,0.0,0.0,93,0.00,,,0.15,Wunderground v.1.15,2013-03-25 07:05:00,
2013-03-25 03:09:00,27.1,25.3,29.57,SW,227,0.0,0.0,93,0.00,,,0.15,Wunderground v.1.15,2013-03-25 07:09:00,
2013-03-25 03:10:00,27.1,25.3,29.57,SW,221,0.0,0.0,93,0.00,,,0.15,Wunderground v.1.15,2013-03-25 07:10:00,
2013-03-25 03:11:00,27.1,25.3,29.57,SW,221,0.0,0.0,93,0.00,,,0.15,Wunderground v.1.15,2013-03-25 07:11:00,
2013-03-25 03:12:00,27.1,25.3,29.57,SW,229,0.0,0.0,93,0.00,,,0.15,Wunderground v.1.15,2013-03-25 07:12:00,
2013-03-25 03:14:00,27.1,25.3,29.57,WSW,238,0.0,0.0,93,0.00,,,0.15,Wunderground v.1.15,2013-03-25 07:14:00,
2013-03-25 03:16:00,27.1,25.3,29.57,WSW,242,0.0,0.0,93,0.00,,,0.15,Wunderground v.1.15,2013-03-25 07:16:00,
2013-03-25 03:17:00,27.1,25.3,29.57,WSW,242,0.0,0.0,93,0.00,,,0.15,Wunderground v.1.15,2013-03-25 07:17:00,
2013-03-25 03:20:00,27.1,25.3,29.57,WSW,242,0.0,0.0,93,0.00,,,0.15,Wunderground v.1.15,2013-03-25 07:20:00,
2013-03-25 03:22:00,27.2,25.4,29.56,SW,215,0.0,0.0,93,0.00,,,0.15,Wunderground v.1.15,2013-03-25 07:22:00,
2013-03-25 03:23:00,27.1,25.3,29.56,SW,214,0.0,0.0,93,0.00,,,0.15,Wunderground v.1.15,2013-03-25 07:23:00,
2013-03-25 03:25:00,27.1,25.3,29.57,SSW,213,0.0,0.0,93,0.00,,,0.15,Wunderground v.1.15,2013-03-25 07:25:00,
2013-03-25 03:27:00,27.1,25.3,29.56,SSW,198,0.0,0.0,93,0.00,,,0.15,Wunderground v.1.15,2013-03-25 07:27:00,
2013-03-25 03:28:00,27.1,25.3,29.56,SSE,153,0.0,0.0,93,0.00,,,0.15,Wunderground v.1.15,2013-03-25 07:28:00,
2013-03-25 03:31:00,27.1,25.3,29.56,SSE,150,0.0,0.0,93,0.00,,,0.15,Wunderground v.1.15,2013-03-25 07:31:00,
2013-03-25 03:32:00,27.1,25.3,29.56,SSE,149,0.0,0.0,93,0.00,,,0.15,Wunderground v.1.15,2013-03-25 07:32:00,
2013-03-25 03:33:00,27.1,25.3,29.56,SSE,153,0.0,0.0,93,0.00,,,0.15,Wunderground v.1.15,2013-03-25 07:33:00,
2013-03-25 03:36:00,27.1,25.3,29.56,SSE,165,0.0,0.0,93,0.00,,,0.15,Wunderground v.1.15,2013-03-25 07:36:00,
2013-03-25 03:37:00,27.1,25.3,29.56,SSE,165,0.0,0.0,93,0.00,,,0.15,Wunderground v.1.15,2013-03-25 07:37:00,
2013-03-25 03:38:00,27.1,25.3,29.56,SSE,165,0.0,0.0,93,0.00,,,0.15,Wunderground v.1.15,2013-03-25 07:38:00,
2013-03-25 03:40:00,27.1,25.3,29.56,South,174,0.0,0.0,93,0.00,,,0.15,Wunderground v.1.15,2013-03-25 07:40:00,
2013-03-25 03:41:00,27.1,25.0,29.56,South,178,0.0,0.0,93,0.00,,,0.15,weatherlink.com 1.10,2013-03-25 07:41:00,
2013-03-25 03:42:00,27.1,25.3,29.56,South,178,0.0,0.0,93,0.00,,,0.15,Wunderground v.1.15,2013-03-25 07:42:00,
2013-03-25 03:43:00,27.1,25.3,29.56,South,178,0.0,0.0,93,0.00,,,0.15,Wunderground v.1.15,2013-03-25 07:43:00,
2013-03-25 03:45:00,27.1,25.3,29.56,South,178,0.0,0.0,93,0.00,,,0.15,Wunderground v.1.15,2013-03-25 07:45:00,
2013-03-25 03:47:00,27.1,25.3,29.56,South,178,0.0,0.0,93,0.00,,,0.15,Wunderground v.1.15,2013-03-25 07:47:00,
2013-03-25 03:48:00,27.1,25.3,29.56,South,178,0.0,0.0,93,0.00,,,0.15,Wunderground v.1.15,2013-03-25 07:48:00,
2013-03-25 03:50:00,27.1,25.3,29.56,South,178,0.0,0.0,93,0.00,,,0.15,Wunderground v.1.15,2013-03-25 07:50:00,
2013-03-25 03:52:00,27.1,25.3,29.56,South,171,0.0,0.0,93,0.00,,,0.15,Wunderground v.1.15,2013-03-25 07:52:00,
2013-03-25 03:53:00,27.1,25.3,29.56,South,171,0.0,0.0,93,0.00,,,0.15,Wunderground v.1.15,2013-03-25 07:53:00,
2013-03-25 03:55:00,27.1,25.3,29.55,South,171,0.0,0.0,93,0.00,,,0.15,Wunderground v.1.15,2013-03-25 07:55:00,
2013-03-25 03:57:00,27.1,25.3,29.56,South,171,0.0,0.0,93,0.00,,,0.15,Wunderground v.1.15,2013-03-25 07:57:00,
2013-03-25 03:58:00,27.1,25.3,29.56,South,171,0.0,0.0,93,0.00,,,0.15,Wunderground v.1.15,2013-03-25 07:58:00,
2013-03-25 04:00:00,27.1,25.3,29.55,SSE,151,0.0,0.0,93,0.00,,,0.15,Wunderground v.1.15,2013-03-25 08:00:00,
2013-03-25 04:03:00,27.2,25.4,29.55,SSE,167,0.0,0.0,93,0.00,,,0.15,Wunderground v.1.15,2013-03-25 08:03:00,
2013-03-25 04:05:00,27.2,25.4,29.55,South,176,0.0,0.0,93,0.00,,,0.15,Wunderground v.1.15,2013-03-25 08:05:00,
2013-03-25 04:06:00,27.2,25.4,29.55,South,175,0.0,0.0,93,0.00,,,0.15,Wunderground v.1.15,2013-03-25 08:06:00,
2013-03-25 04:08:00,27.2,25.4,29.55,SE,145,0.0,0.0,93,0.00,,,0.15,Wunderground v.1.15,2013-03-25 08:08:00,
2013-03-25 04:10:00,27.2,25.4,29.55,SE,145,0.0,0.0,93,0.00,,,0.15,Wunderground v.1.15,2013-03-25 08:10:00,
2013-03-25 04:11:00,27.2,25.4,29.55,South,176,0.0,0.0,93,0.00,,,0.15,Wunderground v.1.15,2013-03-25 08:11:00,
2013-03-25 04:13:00,27.2,25.4,29.55,SSE,163,0.0,0.0,93,0.00,,,0.15,Wunderground v.1.15,2013-03-25 08:13:00,
2013-03-25 04:14:00,27.2,25.4,29.55,SSE,163,0.0,0.0,93,0.00,,,0.15,Wunderground v.1.15,2013-03-25 08:14:00,
2013-03-25 04:15:00,27.2,25.4,29.55,SSE,163,0.0,0.0,93,0.00,,,0.15,Wunderground v.1.15,2013-03-25 08:15:00,
2013-03-25 04:17:00,27.2,25.4,29.55,SSE,160,0.0,0.0,93,0.00,,,0.15,Wunderground v.1.15,2013-03-25 08:17:00,
2013-03-25 04:18:00,27.2,25.4,29.55,SSE,159,0.0,0.0,93,0.00,,,0.15,Wunderground v.1.15,2013-03-25 08:18:00,
2013-03-25 04:20:00,27.2,25.4,29.55,South,169,0.0,0.0,93,0.00,,,0.15,Wunderground v.1.15,2013-03-25 08:20:00,
2013-03-25 04:23:00,27.2,25.4,29.55,SSE,168,0.0,0.0,93,0.00,,,0.15,Wunderground v.1.15,2013-03-25 08:23:00,
2013-03-25 04:24:00,27.2,25.4,29.55,SSE,158,0.0,0.0,93,0.00,,,0.15,Wunderground v.1.15,2013-03-25 08:24:00,
2013-03-25 04:25:00,27.2,25.4,29.55,SSE,158,0.0,0.0,93,0.00,,,0.15,Wunderground v.1.15,2013-03-25 08:25:00,
2013-03-25 04:26:00,27.2,25.4,29.55,SSE,162,0.0,0.0,93,0.00,,,0.15,Wunderground v.1.15,2013-03-25 08:26:00,
2013-03-25 04:28:00,27.2,25.4,29.55,SSE,165,0.0,0.0,93,0.00,,,0.15,Wunderground v.1.15,2013-03-25 08:28:00,
2013-03-25 04:29:00,27.2,25.4,29.55,SE,140,0.0,0.0,93,0.00,,,0.15,Wunderground v.1.15,2013-03-25 08:29:00,
2013-03-25 04:30:00,27.2,25.4,29.55,SSE,164,0.0,0.0,93,0.00,,,0.15,Wunderground v.1.15,2013-03-25 08:30:00,
2013-03-25 04:31:00,27.2,25.4,29.55,SSE,166,0.0,0.0,93,0.00,,,0.15,Wunderground v.1.15,2013-03-25 08:31:00,
2013-03-25 04:33:00,27.2,25.4,29.55,SSE,166,0.0,0.0,93,0.00,,,0.15,Wunderground v.1.15,2013-03-25 08:33:00,
2013-03-25 04:34:00,27.2,25.4,29.55,SSE,155,0.0,0.0,93,0.00,,,0.15,Wunderground v.1.15,2013-03-25 08:34:00,
2013-03-25 04:35:00,27.2,25.4,29.55,SSE,163,0.0,0.0,93,0.00,,,0.15,Wunderground v.1.15,2013-03-25 08:35:00,
2013-03-25 04:37:00,27.2,25.4,29.54,SSE,148,0.0,0.0,93,0.00,,,0.15,Wunderground v.1.15,2013-03-25 08:37:00,
2013-03-25 04:38:00,27.2,25.4,29.54,SSE,157,0.0,0.0,93,0.00,,,0.15,Wunderground v.1.15,2013-03-25 08:38:00,
2013-03-25 04:40:00,27.2,25.4,29.54,South,171,0.0,0.0,93,0.00,,,0.15,Wunderground v.1.15,2013-03-25 08:40:00,
2013-03-25 04:42:00,27.2,25.4,29.54,SSE,165,0.0,0.0,93,0.00,,,0.15,Wunderground v.1.15,2013-03-25 08:42:00,
2013-03-25 04:43:00,27.2,25.4,29.54,South,175,0.0,0.0,93,0.00,,,0.15,Wunderground v.1.15,2013-03-25 08:43:00,
2013-03-25 04:45:00,27.2,25.4,29.54,South,175,0.0,0.0,93,0.00,,,0.15,Wunderground v.1.15,2013-03-25 08:45:00,
2013-03-25 04:47:00,27.2,25.4,29.54,South,178,0.0,0.0,93,0.00,,,0.15,Wunderground v.1.15,2013-03-25 08:47:00,
2013-03-25 04:49:00,27.2,25.4,29.54,South,178,0.0,0.0,93,0.00,,,0.15,Wunderground v.1.15,2013-03-25 08:49:00,
2013-03-25 04:50:00,27.2,25.4,29.54,South,171,0.0,0.0,93,0.00,,,0.15,Wunderground v.1.15,2013-03-25 08:50:00,
2013-03-25 04:52:00,27.3,25.5,29.54,South,184,0.0,0.0,93,0.00,,,0.15,Wunderground v.1.15,2013-03-25 08:52:00,
2013-03-25 04:54:00,27.3,25.5,29.54,South,169,0.0,0.0,93,0.00,,,0.15,Wunderground v.1.15,2013-03-25 08:54:00,
2013-03-25 04:55:00,27.3,25.5,29.54,SE,142,0.0,0.0,93,0.00,,,0.15,Wunderground v.1.15,2013-03-25 08:55:00,
2013-03-25 04:56:00,27.3,25.5,29.54,SE,142,0.0,0.0,93,0.00,,,0.15,Wunderground v.1.15,2013-03-25 08:56:00,
2013-03-25 04:57:00,27.3,25.5,29.54,South,176,0.0,0.0,93,0.00,,,0.15,Wunderground v.1.15,2013-03-25 08:57:00,
2013-03-25 04:59:00,27.3,25.5,29.54,South,175,0.0,0.0,93,0.00,,,0.15,Wunderground v.1.15,2013-03-25 08:59:00,
2013-03-25 05:01:00,27.3,25.5,29.54,South,185,0.0,0.0,93,0.00,,,0.15,Wunderground v.1.15,2013-03-25 09:01:00,
2013-03-25 05:03:00,27.3,25.5,29.54,South,184,0.0,0.0,93,0.00,,,0.15,Wunderground v.1.15,2013-03-25 09:03:00,
2013-03-25 05:04:00,27.3,25.5,29.54,South,184,0.0,0.0,93,0.00,,,0.15,Wunderground v.1.15,2013-03-25 09:04:00,
2013-03-25 05:06:00,27.3,25.5,29.54,South,177,0.0,0.0,93,0.00,,,0.15,Wunderground v.1.15,2013-03-25 09:06:00,
2013-03-25 05:09:00,27.3,25.5,29.54,South,186,0.0,0.0,93,0.00,,,0.15,Wunderground v.1.15,2013-03-25 09:09:00,
2013-03-25 05:10:00,27.3,25.5,29.54,South,188,0.0,0.0,93,0.00,,,0.15,Wunderground v.1.15,2013-03-25 09:10:00,
2013-03-25 05:11:00,27.3,25.5,29.54,South,186,0.0,0.0,93,0.00,,,0.15,Wunderground v.1.15,2013-03-25 09:11:00,
2013-03-25 05:14:00,27.3,25.5,29.54,South,180,0.0,0.0,93,0.00,,,0.15,Wunderground v.1.15,2013-03-25 09:14:00,
2013-03-25 05:15:00,27.3,25.5,29.53,South,169,0.0,0.0,93,0.00,,,0.15,Wunderground v.1.15,2013-03-25 09:15:00,
2013-03-25 05:16:00,27.3,25.5,29.53,South,169,0.0,0.0,93,0.00,,,0.15,Wunderground v.1.15,2013-03-25 09:16:00,
2013-03-25 05:17:00,27.3,25.5,29.53,South,169,0.0,0.0,93,0.00,,,0.15,Wunderground v.1.15,2013-03-25 09:17:00,
2013-03-25 05:20:00,27.2,25.4,29.54,SSE,167,0.0,0.0,93,0.00,,,0.15,Wunderground v.1.15,2013-03-25 09:20:00,
2013-03-25 05:21:00,27.2,25.4,29.54,SSE,167,0.0,0.0,93,0.00,,,0.15,Wunderground v.1.15,2013-03-25 09:21:00,
2013-03-25 05:22:00,27.2,25.4,29.54,SSE,167,0.0,0.0,93,0.00,,,0.15,Wunderground v.1.15,2013-03-25 09:22:00,
2013-03-25 05:25:00,27.2,25.4,29.54,SSE,167,0.0,0.0,93,0.00,,,0.15,Wunderground v.1.15,2013-03-25 09:25:00,
2013-03-25 05:26:00,27.1,25.3,29.53,SSE,167,0.0,0.0,93,0.00,,,0.15,Wunderground v.1.15,2013-03-25 09:26:00,
2013-03-25 05:27:00,27.1,25.3,29.53,SSE,167,0.0,0.0,93,0.00,,,0.15,Wunderground v.1.15,2013-03-25 09:27:00,
2013-03-25 05:28:00,27.2,25.4,29.53,SSE,167,0.0,0.0,93,0.00,,,0.15,Wunderground v.1.15,2013-03-25 09:28:00,
2013-03-25 05:30:00,27.1,25.3,29.53,SSE,167,0.0,0.0,93,0.00,,,0.15,Wunderground v.1.15,2013-03-25 09:30:00,
2013-03-25 05:32:00,27.1,25.3,29.53,SSE,167,0.0,0.0,93,0.00,,,0.15,Wunderground v.1.15,2013-03-25 09:32:00,
2013-03-25 05:33:00,27.1,25.3,29.53,SSE,167,0.0,0.0,93,0.00,,,0.15,Wunderground v.1.15,2013-03-25 09:33:00,
2013-03-25 05:37:00,27.0,25.2,29.53,South,169,0.0,0.0,93,0.00,,,0.15,Wunderground v.1.15,2013-03-25 09:37:00,
2013-03-25 05:38:00,27.0,25.2,29.53,South,169,0.0,0.0,93,0.00,,,0.15,Wunderground v.1.15,2013-03-25 09:38:00,
2013-03-25 05:42:00,27.0,25.2,29.53,South,173,0.0,0.0,93,0.00,,,0.15,Wunderground v.1.15,2013-03-25 09:42:00,
2013-03-25 05:43:00,27.0,25.2,29.53,South,173,0.0,0.0,93,0.00,,,0.15,Wunderground v.1.15,2013-03-25 09:43:00,
2013-03-25 05:47:00,27.0,25.2,29.53,South,173,0.0,0.0,93,0.00,,,0.15,Wunderground v.1.15,2013-03-25 09:47:00,
2013-03-25 05:48:00,27.0,25.2,29.53,SSW,192,0.0,0.0,93,0.00,,,0.15,Wunderground v.1.15,2013-03-25 09:48:00,
2013-03-25 05:49:00,27.0,25.2,29.53,SSW,192,0.0,0.0,93,0.00,,,0.15,Wunderground v.1.15,2013-03-25 09:49:00,
2013-03-25 05:53:00,27.0,25.2,29.53,South,191,0.0,0.0,93,0.00,,,0.15,Wunderground v.1.15,2013-03-25 09:53:00,
2013-03-25 05:54:00,27.0,25.2,29.53,South,191,0.0,0.0,93,0.00,,,0.15,Wunderground v.1.15,2013-03-25 09:54:00,
2013-03-25 05:58:00,27.0,25.2,29.53,South,191,0.0,0.0,93,0.00,,,0.15,Wunderground v.1.15,2013-03-25 09:58:00,
2013-03-25 05:59:00,27.0,25.2,29.53,South,191,0.0,0.0,93,0.00,,,0.15,Wunderground v.1.15,2013-03-25 09:59:00,
2013-03-25 06:00:00,27.1,25.3,29.53,South,191,0.0,0.0,93,0.00,,,0.15,Wunderground v.1.15,2013-03-25 10:00:00,
2013-03-25 06:03:00,27.1,25.3,29.53,South,191,0.0,0.0,93,0.00,,,0.15,Wunderground v.1.15,2013-03-25 10:03:00,
2013-03-25 06:04:00,27.2,25.4,29.53,SSW,192,0.0,0.0,93,0.00,,,0.15,Wunderground v.1.15,2013-03-25 10:04:00,
2013-03-25 06:05:00,27.2,25.4,29.53,SSW,192,0.0,0.0,93,0.00,,,0.15,Wunderground v.1.15,2013-03-25 10:05:00,
2013-03-25 06:08:00,27.2,25.4,29.53,SSW,192,0.0,0.0,93,0.00,,,0.15,Wunderground v.1.15,2013-03-25 10:08:00,
2013-03-25 06:09:00,27.2,25.4,29.53,SSW,192,0.0,0.0,93,0.00,,,0.15,Wunderground v.1.15,2013-03-25 10:09:00,
2013-03-25 06:10:00,27.2,25.4,29.53,SSW,192,0.0,0.0,93,0.00,,,0.15,Wunderground v.1.15,2013-03-25 10:10:00,
2013-03-25 06:14:00,27.1,25.3,29.53,SSW,192,0.0,0.0,93,0.00,,,0.15,Wunderground v.1.15,2013-03-25 10:14:00,
2013-03-25 06:15:00,27.1,25.3,29.53,SSW,192,0.0,0.0,93,0.00,,,0.15,Wunderground v.1.15,2013-03-25 10:15:00,
2013-03-25 06:19:00,27.1,25.3,29.53,WSW,256,0.0,0.0,93,0.00,,,0.15,Wunderground v.1.15,2013-03-25 10:19:00,
2013-03-25 06:20:00,27.1,25.3,29.53,WSW,257,0.0,0.0,93,0.00,,,0.15,Wunderground v.1.15,2013-03-25 10:20:00,
2013-03-25 06:21:00,27.0,25.2,29.53,WSW,257,0.0,0.0,93,0.00,,,0.15,Wunderground v.1.15,2013-03-25 10:21:00,
2013-03-25 06:25:00,27.0,25.2,29.53,WSW,242,0.0,0.0,93,0.00,,,0.15,Wunderground v.1.15,2013-03-25 10:25:00,
2013-03-25 06:27:00,26.9,25.1,29.53,WSW,242,0.0,0.0,93,0.00,,,0.15,Wunderground v.1.15,2013-03-25 10:27:00,
2013-03-25 06:30:00,26.8,25.0,29.53,WSW,242,0.0,0.0,93,0.00,,,0.15,Wunderground v.1.15,2013-03-25 10:30:00,
2013-03-25 06:34:00,26.8,25.0,29.53,WSW,242,0.0,0.0,93,0.00,,,0.15,Wunderground v.1.15,2013-03-25 10:34:00,
2013-03-25 06:35:00,26.8,25.0,29.53,WSW,242,0.0,0.0,93,0.00,,,0.15,Wunderground v.1.15,2013-03-25 10:35:00,
2013-03-25 06:39:00,26.8,25.0,29.53,WSW,242,0.0,0.0,93,0.00,,,0.15,Wunderground v.1.15,2013-03-25 10:39:00,
2013-03-25 06:41:00,26.9,25.1,29.53,WSW,242,0.0,0.0,93,0.00,,,0.15,Wunderground v.1.15,2013-03-25 10:41:00,
2013-03-25 06:42:00,26.9,25.1,29.53,WSW,242,0.0,0.0,93,0.00,,,0.15,Wunderground v.1.15,2013-03-25 10:42:00,
2013-03-25 06:45:00,27.0,25.2,29.54,WSW,242,0.0,0.0,93,0.00,,,0.15,Wunderground v.1.15,2013-03-25 10:45:00,
2013-03-25 06:46:00,27.0,25.2,29.53,WSW,242,0.0,0.0,93,0.00,,,0.15,Wunderground v.1.15,2013-03-25 10:46:00,
2013-03-25 06:47:00,27.0,25.2,29.53,WSW,242,0.0,0.0,93,0.00,,,0.15,Wunderground v.1.15,2013-03-25 10:47:00,
2013-03-25 06:50:00,26.9,25.1,29.54,WSW,242,0.0,0.0,93,0.00,,,0.15,Wunderground v.1.15,2013-03-25 10:50:00,
2013-03-25 06:52:00,26.9,25.1,29.54,WSW,247,0.0,0.0,93,0.00,,,0.15,Wunderground v.1.15,2013-03-25 10:52:00,
2013-03-25 06:53:00,26.9,25.1,29.54,WSW,248,0.0,0.0,93,0.00,,,0.15,Wunderground v.1.15,2013-03-25 10:53:00,
2013-03-25 06:54:00,26.8,25.0,29.54,West,260,0.0,0.0,93,0.00,,,0.15,Wunderground v.1.15,2013-03-25 10:54:00,
2013-03-25 06:55:00,26.8,25.0,29.54,West,260,0.0,0.0,93,0.00,,,0.15,Wunderground v.1.15,2013-03-25 10:55:00,
2013-03-25 06:57:00,26.8,25.0,29.54,West,277,0.0,0.0,93,0.00,,,0.15,Wunderground v.1.15,2013-03-25 10:57:00,
2013-03-25 06:58:00,26.8,25.0,29.54,West,264,0.0,0.0,93,0.00,,,0.15,Wunderground v.1.15,2013-03-25 10:58:00,
2013-03-25 07:00:00,26.8,25.0,29.54,West,265,0.0,0.0,93,0.00,,,0.15,Wunderground v.1.15,2013-03-25 11:00:00,
2013-03-25 07:01:00,26.7,24.9,29.54,West,265,0.0,0.0,93,0.00,,,0.15,Wunderground v.1.15,2013-03-25 11:01:00,
2013-03-25 07:03:00,26.7,24.9,29.54,WSW,247,0.0,0.0,93,0.00,,,0.15,Wunderground v.1.15,2013-03-25 11:03:00,
2013-03-25 07:04:00,26.7,24.9,29.54,WSW,248,0.0,0.0,93,0.00,,,0.15,Wunderground v.1.15,2013-03-25 11:04:00,
2013-03-25 07:05:00,26.7,24.9,29.54,WSW,250,0.0,0.0,93,0.00,,,0.15,Wunderground v.1.15,2013-03-25 11:05:00,
2013-03-25 07:08:00,26.8,25.0,29.54,WSW,250,0.0,0.0,93,0.00,,,0.15,Wunderground v.1.15,2013-03-25 11:08:00,
2013-03-25 07:09:00,26.8,25.0,29.53,West,279,0.0,0.0,93,0.00,,,0.15,Wunderground v.1.15,2013-03-25 11:09:00,
2013-03-25 07:11:00,26.9,25.1,29.54,WNW,284,0.0,0.0,93,0.00,,,0.15,Wunderground v.1.15,2013-03-25 11:11:00,
2013-03-25 07:13:00,26.9,25.1,29.54,WNW,283,0.0,0.0,93,0.00,,,0.15,Wunderground v.1.15,2013-03-25 11:13:00,
2013-03-25 07:14:00,27.0,25.2,29.54,West,279,0.0,0.0,93,0.00,,,0.15,Wunderground v.1.15,2013-03-25 11:14:00,
2013-03-25 07:16:00,27.2,25.7,29.54,West,273,0.0,0.0,94,0.00,,,0.15,Wunderground v.1.15,2013-03-25 11:16:00,
2013-03-25 07:18:00,27.4,25.9,29.54,West,273,0.0,0.0,94,0.00,,,0.15,Wunderground v.1.15,2013-03-25 11:18:00,
2013-03-25 07:19:00,27.5,26.0,29.54,WNW,289,0.0,0.0,94,0.00,,,0.15,Wunderground v.1.15,2013-03-25 11:19:00,
2013-03-25 07:21:00,27.8,26.3,29.54,West,267,0.0,0.0,94,0.00,,,0.15,Wunderground v.1.15,2013-03-25 11:21:00,
2013-03-25 07:23:00,28.0,26.5,29.54,WNW,290,0.0,0.0,94,0.00,,,0.15,Wunderground v.1.15,2013-03-25 11:23:00,
2013-03-25 07:24:00,28.1,26.6,29.54,West,262,0.0,0.0,94,0.00,,,0.15,Wunderground v.1.15,2013-03-25 11:24:00,
2013-03-25 07:25:00,28.1,26.6,29.54,West,266,0.0,0.0,94,0.00,,,0.15,Wunderground v.1.15,2013-03-25 11:25:00,
2013-03-25 07:27:00,28.3,26.8,29.54,WNW,287,0.0,0.0,94,0.00,,,0.15,Wunderground v.1.15,2013-03-25 11:27:00,
2013-03-25 07:28:00,28.4,26.9,29.54,West,281,0.0,0.0,94,0.00,,,0.15,Wunderground v.1.15,2013-03-25 11:28:00,
2013-03-25 07:29:00,28.5,27.0,29.54,West,273,0.0,0.0,94,0.00,,,0.15,Wunderground v.1.15,2013-03-25 11:29:00,
2013-03-25 07:30:00,28.5,27.0,29.54,West,269,0.0,0.0,94,0.00,,,0.15,Wunderground v.1.15,2013-03-25 11:30:00,
2013-03-25 07:33:00,28.7,27.2,29.54,West,261,0.0,0.0,94,0.00,,,0.15,Wunderground v.1.15,2013-03-25 11:33:00,
2013-03-25 07:34:00,28.7,27.2,29.54,NW,314,0.0,0.0,94,0.00,,,0.15,Wunderground v.1.15,2013-03-25 11:34:00,
2013-03-25 07:35:00,28.8,27.3,29.54,West,265,0.0,0.0,94,0.00,,,0.15,Wunderground v.1.15,2013-03-25 11:35:00,
2013-03-25 07:38:00,28.9,27.4,29.54,West,277,0.0,0.0,94,0.00,,,0.15,Wunderground v.1.15,2013-03-25 11:38:00,
2013-03-25 07:39:00,28.9,27.4,29.54,WSW,257,0.0,0.0,94,0.00,,,0.15,Wunderground v.1.15,2013-03-25 11:39:00,
2013-03-25 07:40:00,29.0,27.5,29.54,WSW,254,0.0,0.0,94,0.00,,,0.15,Wunderground v.1.15,2013-03-25 11:40:00,
2013-03-25 07:41:00,29.0,27.5,29.54,WNW,286,0.0,0.0,94,0.00,,,0.15,Wunderground v.1.15,2013-03-25 11:41:00,
2013-03-25 07:43:00,29.2,27.7,29.54,WSW,256,0.0,0.0,94,0.00,,,0.15,Wunderground v.1.15,2013-03-25 11:43:00,
2013-03-25 07:44:00,29.2,27.7,29.54,WSW,246,0.0,0.0,94,0.00,,,0.15,Wunderground v.1.15,2013-03-25 11:44:00,
2013-03-25 07:45:00,29.3,27.5,29.54,WSW,240,0.0,0.0,93,0.00,,,0.15,Wunderground v.1.15,2013-03-25 11:45:00,
2013-03-25 07:46:00,29.3,27.5,29.54,WSW,238,0.0,0.0,93,0.00,,,0.15,Wunderground v.1.15,2013-03-25 11:46:00,
2013-03-25 07:49:00,29.4,27.6,29.54,WNW,283,0.0,0.0,93,0.00,,,0.15,Wunderground v.1.15,2013-03-25 11:49:00,
2013-03-25 07:50:00,29.5,27.7,29.54,WNW,287,0.0,0.0,93,0.00,,,0.15,Wunderground v.1.15,2013-03-25 11:50:00,
2013-03-25 07:51:00,29.5,27.7,29.54,WNW,292,0.0,0.0,93,0.00,,,0.15,Wunderground v.1.15,2013-03-25 11:51:00,
2013-03-25 07:54:00,29.6,27.6,29.54,WSW,252,0.0,0.0,92,0.00,,,0.15,Wunderground v.1.15,2013-03-25 11:54:00,
2013-03-25 07:55:00,29.6,27.6,29.54,West,269,0.0,0.0,92,0.00,,,0.15,Wunderground v.1.15,2013-03-25 11:55:00,
2013-03-25 07:56:00,29.6,27.6,29.54,WSW,257,0.0,0.0,92,0.00,,,0.15,Wunderground v.1.15,2013-03-25 11:56:00,
2013-03-25 07:59:00,29.7,27.7,29.54,West,279,0.0,0.0,92,0.00,,,0.15,Wunderground v.1.15,2013-03-25 11:59:00,
2013-03-25 08:01:00,29.7,27.4,29.54,WNW,288,0.0,0.0,91,0.00,,,0.15,Wunderground v.1.15,2013-03-25 12:01:00,
2013-03-25 08:02:00,29.7,27.4,29.54,West,260,0.0,0.0,91,0.00,,,0.15,Wunderground v.1.15,2013-03-25 12:02:00,
2013-03-25 08:04:00,29.7,27.4,29.54,West,262,0.0,0.0,91,0.00,,,0.15,Wunderground v.1.15,2013-03-25 12:04:00,
2013-03-25 08:05:00,29.7,27.4,29.54,WNW,291,0.0,0.0,91,0.00,,,0.15,Wunderground v.1.15,2013-03-25 12:05:00,
2013-03-25 08:07:00,29.8,27.2,29.54,West,271,0.0,0.0,90,0.00,,,0.15,Wunderground v.1.15,2013-03-25 12:07:00,
2013-03-25 08:08:00,29.8,27.2,29.54,WSW,254,0.0,0.0,90,0.00,,,0.15,Wunderground v.1.15,2013-03-25 12:08:00,
2013-03-25 08:09:00,29.8,27.2,29.54,NW,308,0.0,0.0,90,0.00,,,0.15,Wunderground v.1.15,2013-03-25 12:09:00,
2013-03-25 08:10:00,29.8,27.2,29.54,WNW,289,0.0,0.0,90,0.00,,,0.15,Wunderground v.1.15,2013-03-25 12:10:00,
2013-03-25 08:12:00,29.8,27.2,29.54,West,271,0.0,0.0,90,0.00,,,0.15,Wunderground v.1.15,2013-03-25 12:12:00,
2013-03-25 08:14:00,29.8,27.2,29.54,WSW,252,0.0,0.0,90,0.00,,,0.15,Wunderground v.1.15,2013-03-25 12:14:00,
2013-03-25 08:16:00,29.7,26.9,29.54,West,267,0.0,0.0,89,0.00,,,0.15,Wunderground v.1.15,2013-03-25 12:16:00,
2013-03-25 08:17:00,29.7,26.9,29.54,WNW,295,0.0,0.0,89,0.00,,,0.15,Wunderground v.1.15,2013-03-25 12:17:00,
2013-03-25 08:19:00,29.7,26.9,29.54,SW,223,0.0,0.0,89,0.00,,,0.15,Wunderground v.1.15,2013-03-25 12:19:00,
2013-03-25 08:20:00,29.6,26.8,29.54,WSW,256,0.0,0.0,89,0.00,,,0.15,Wunderground v.1.15,2013-03-25 12:20:00,
2013-03-25 08:23:00,29.6,26.8,29.54,West,263,0.0,0.0,89,0.00,,,0.15,Wunderground v.1.15,2013-03-25 12:23:00,
2013-03-25 08:24:00,29.7,26.9,29.54,WSW,250,0.0,0.0,89,0.00,,,0.15,Wunderground v.1.15,2013-03-25 12:24:00,
2013-03-25 08:25:00,29.7,26.9,29.54,WNW,288,0.0,0.0,89,0.00,,,0.15,Wunderground v.1.15,2013-03-25 12:25:00,
2013-03-25 08:28:00,29.7,26.9,29.54,WSW,254,0.0,0.0,89,0.00,,,0.15,Wunderground v.1.15,2013-03-25 12:28:00,
2013-03-25 08:30:00,29.8,27.0,29.55,WNW,291,0.0,0.0,89,0.00,,,0.15,Wunderground v.1.15,2013-03-25 12:30:00,
2013-03-25 08:33:00,29.8,27.0,29.55,West,274,0.0,0.0,89,0.00,,,0.15,Wunderground v.1.15,2013-03-25 12:33:00,
2013-03-25 08:35:00,29.8,26.7,29.54,WNW,298,0.0,0.0,88,0.00,,,0.15,Wunderground v.1.15,2013-03-25 12:35:00,
2013-03-25 08:37:00,29.9,26.8,29.55,WNW,292,0.0,0.0,88,0.00,,,0.15,Wunderground v.1.15,2013-03-25 12:37:00,
2013-03-25 08:38:00,29.9,26.8,29.55,West,260,0.0,0.0,88,0.00,,,0.15,Wunderground v.1.15,2013-03-25 12:38:00,
2013-03-25 08:40:00,29.9,26.8,29.55,WSW,249,0.0,0.0,88,0.00,,,0.15,Wunderground v.1.15,2013-03-25 12:40:00,
2013-03-25 08:42:00,30.0,26.9,29.55,WNW,283,0.0,0.0,88,0.00,,,0.15,Wunderground v.1.15,2013-03-25 12:42:00,
2013-03-25 08:43:00,29.9,26.8,29.55,SW,235,0.0,0.0,88,0.00,,,0.15,Wunderground v.1.15,2013-03-25 12:43:00,
2013-03-25 08:48:00,29.8,26.4,29.55,SW,223,0.0,0.0,87,0.00,,,0.15,Wunderground v.1.15,2013-03-25 12:48:00,
2013-03-25 08:49:00,29.8,26.4,29.55,West,259,0.0,0.0,87,0.00,,,0.15,Wunderground v.1.15,2013-03-25 12:49:00,
2013-03-25 08:53:00,29.6,26.2,29.55,SW,236,0.0,0.0,87,0.00,,,0.15,Wunderground v.1.15,2013-03-25 12:53:00,
2013-03-25 08:54:00,29.6,26.2,29.55,West,279,0.0,0.0,87,0.00,,,0.15,Wunderground v.1.15,2013-03-25 12:54:00,
2013-03-25 08:59:00,29.4,26.0,29.55,WNW,293,0.0,0.0,87,0.00,,,0.15,Wunderground v.1.15,2013-03-25 12:59:00,
2013-03-25 09:00:00,29.4,26.0,29.55,WNW,282,0.0,0.0,87,0.00,,,0.15,Wunderground v.1.15,2013-03-25 13:00:00,
2013-03-25 09:04:00,29.4,26.0,29.55,NW,305,0.0,0.0,87,0.00,,,0.15,Wunderground v.1.15,2013-03-25 13:04:00,
2013-03-25 09:05:00,29.4,26.0,29.55,West,270,0.0,0.0,87,0.00,,,0.15,Wunderground v.1.15,2013-03-25 13:05:00,
2013-03-25 09:09:00,29.4,26.0,29.56,WSW,246,0.0,0.0,87,0.00,,,0.15,Wunderground v.1.15,2013-03-25 13:09:00,
2013-03-25 09:10:00,29.4,26.0,29.56,WNW,287,0.0,0.0,87,0.00,,,0.15,Wunderground v.1.15,2013-03-25 13:10:00,
2013-03-25 09:14:00,29.3,25.4,29.56,WNW,285,0.0,0.0,85,0.00,,,0.15,Wunderground v.1.15,2013-03-25 13:14:00,
2013-03-25 09:15:00,29.4,25.4,29.56,West,261,0.0,0.0,85,0.00,,,0.15,Wunderground v.1.15,2013-03-25 13:15:00,
2013-03-25 09:16:00,29.3,25.4,29.56,West,274,0.0,0.0,85,0.00,,,0.15,Wunderground v.1.15,2013-03-25 13:16:00,
2013-03-25 09:20:00,29.4,25.4,29.56,WSW,240,0.0,0.0,85,0.00,,,0.15,Wunderground v.1.15,2013-03-25 13:20:00,
2013-03-25 09:22:00,29.4,25.2,29.56,WNW,285,0.0,0.0,84,0.00,,,0.15,Wunderground v.1.15,2013-03-25 13:22:00,
2013-03-25 09:25:00,29.6,25.6,29.56,WSW,246,0.0,0.0,85,0.00,,,0.15,Wunderground v.1.15,2013-03-25 13:25:00,
2013-03-25 09:26:00,29.6,25.6,29.56,NW,319,0.0,0.0,85,0.00,,,0.15,Wunderground v.1.15,2013-03-25 13:26:00,
2013-03-25 09:27:00,29.7,25.7,29.56,WNW,283,0.0,0.0,85,0.00,,,0.15,Wunderground v.1.15,2013-03-25 13:27:00,
2013-03-25 09:31:00,29.8,25.8,29.56,West,275,0.0,0.0,85,0.00,,,0.15,Wunderground v.1.15,2013-03-25 13:31:00,
2013-03-25 09:32:00,29.9,25.9,29.56,WSW,254,0.0,0.0,85,0.00,,,0.15,Wunderground v.1.15,2013-03-25 13:32:00,
2013-03-25 09:34:00,29.9,25.7,29.56,WNW,284,0.0,0.0,84,0.00,,,0.15,Wunderground v.1.15,2013-03-25 13:34:00,
2013-03-25 09:36:00,30.0,25.8,29.56,West,261,0.0,0.0,84,0.00,,,0.15,Wunderground v.1.15,2013-03-25 13:36:00,
2013-03-25 09:37:00,30.1,25.8,29.56,WNW,296,0.0,0.0,84,0.00,,,0.15,Wunderground v.1.15,2013-03-25 13:37:00,
2013-03-25 09:39:00,30.2,25.7,29.56,West,264,0.0,0.0,83,0.00,,,0.15,Wunderground v.1.15,2013-03-25 13:39:00,
2013-03-25 09:41:00,30.3,25.8,29.56,WNW,294,0.0,0.0,83,0.00,,,0.15,Wunderground v.1.15,2013-03-25 13:41:00,
2013-03-25 09:42:00,30.2,25.7,29.56,NW,306,0.0,0.0,83,0.00,,,0.15,Wunderground v.1.15,2013-03-25 13:42:00,
2013-03-25 09:45:00,30.2,25.4,29.55,West,280,0.0,0.0,82,0.00,,,0.15,Wunderground v.1.15,2013-03-25 13:45:00,
2013-03-25 09:46:00,30.3,25.5,29.56,WNW,288,0.0,0.0,82,0.00,,,0.15,Wunderground v.1.15,2013-03-25 13:46:00,
2013-03-25 09:47:00,30.3,25.2,29.56,WNW,288,0.0,0.0,81,0.00,,,0.15,Wunderground v.1.15,2013-03-25 13:47:00,
2013-03-25 09:48:00,30.3,25.2,29.56,WNW,288,0.0,0.0,81,0.00,,,0.15,Wunderground v.1.15,2013-03-25 13:48:00,
2013-03-25 09:50:00,30.4,25.9,29.56,WNW,285,0.0,0.0,83,0.00,,,0.15,Wunderground v.1.15,2013-03-25 13:50:00,
2013-03-25 09:52:00,30.5,26.0,29.56,West,263,0.0,0.0,83,0.00,,,0.15,Wunderground v.1.15,2013-03-25 13:52:00,
2013-03-25 09:53:00,30.5,26.0,29.56,WNW,282,0.0,0.0,83,0.00,,,0.15,Wunderground v.1.15,2013-03-25 13:53:00,
2013-03-25 09:55:00,30.6,26.1,29.56,WSW,256,0.0,0.0,83,0.00,,,0.15,Wunderground v.1.15,2013-03-25 13:55:00,
2013-03-25 09:58:00,30.6,26.1,29.56,South,191,0.0,0.0,83,0.00,,,0.15,Wunderground v.1.15,2013-03-25 13:58:00,
2013-03-25 10:00:00,30.6,25.8,29.56,West,280,0.0,0.0,82,0.00,,,0.00,Wunderground v.1.15,2013-03-25 14:00:00,
2013-03-25 10:03:00,30.5,26.0,29.56,West,265,0.0,0.0,83,0.00,,,0.00,Wunderground v.1.15,2013-03-25 14:03:00,
2013-03-25 10:05:00,30.5,26.0,29.56,WNW,291,0.0,0.0,83,0.00,,,0.00,Wunderground v.1.15,2013-03-25 14:05:00,
2013-03-25 10:08:00,30.6,25.8,29.56,West,271,0.0,0.0,82,0.00,,,0.00,Wunderground v.1.15,2013-03-25 14:08:00,
2013-03-25 10:09:00,30.5,25.7,29.56,WSW,252,0.0,0.0,82,0.00,,,0.00,Wunderground v.1.15,2013-03-25 14:09:00,
2013-03-25 10:11:00,30.5,25.4,29.56,NNW,327,0.0,0.0,81,0.00,,,0.00,Wunderground v.1.15,2013-03-25 14:11:00,
2013-03-25 10:13:00,30.5,25.7,29.57,West,270,0.0,0.0,82,0.00,,,0.00,Wunderground v.1.15,2013-03-25 14:13:00,
2013-03-25 10:14:00,30.5,25.7,29.57,WSW,253,0.0,0.0,82,0.00,,,0.00,Wunderground v.1.15,2013-03-25 14:14:00,
2013-03-25 10:17:00,30.6,25.5,29.56,West,268,0.0,0.0,81,0.00,,,0.00,Wunderground v.1.15,2013-03-25 14:17:00,
2013-03-25 10:19:00,30.6,25.8,29.57,WNW,298,0.0,0.0,82,0.00,,,0.00,Wunderground v.1.15,2013-03-25 14:19:00,
2013-03-25 10:22:00,30.6,25.5,29.57,WNW,287,0.0,0.0,81,0.00,,,0.00,Wunderground v.1.15,2013-03-25 14:22:00,
2013-03-25 10:24:00,30.5,25.4,29.57,WNW,300,0.0,0.0,81,0.00,,,0.00,Wunderground v.1.15,2013-03-25 14:24:00,
2013-03-25 10:25:00,30.5,25.4,29.57,WNW,298,0.0,0.0,81,0.00,,,0.00,Wunderground v.1.15,2013-03-25 14:25:00,
2013-03-25 10:28:00,30.3,25.2,29.57,WNW,289,0.0,0.0,81,0.00,,,0.00,Wunderground v.1.15,2013-03-25 14:28:00,
2013-03-25 10:29:00,30.3,24.9,29.57,WSW,248,0.0,0.0,80,0.00,,,0.00,Wunderground v.1.15,2013-03-25 14:29:00,
2013-03-25 10:30:00,30.2,24.8,29.57,West,267,0.0,0.0,80,0.00,,,0.00,Wunderground v.1.15,2013-03-25 14:30:00,
2013-03-25 10:33:00,30.3,25.2,29.57,West,266,0.0,0.0,81,0.00,,,0.00,Wunderground v.1.15,2013-03-25 14:33:00,
2013-03-25 10:34:00,30.4,25.3,29.57,West,263,0.0,0.0,81,0.00,,,0.00,Wunderground v.1.15,2013-03-25 14:34:00,
2013-03-25 10:35:00,30.5,25.4,29.57,SW,225,0.0,0.0,81,0.00,,,0.00,Wunderground v.1.15,2013-03-25 14:35:00,
2013-03-25 10:36:00,30.5,25.4,29.57,WSW,252,0.0,0.0,81,0.00,,,0.00,Wunderground v.1.15,2013-03-25 14:36:00,
2013-03-25 10:38:00,30.6,25.5,29.57,West,265,0.0,0.0,81,0.00,,,0.00,Wunderground v.1.15,2013-03-25 14:38:00,
2013-03-25 10:40:00,30.6,25.2,29.58,WNW,301,0.0,0.0,80,0.00,,,0.00,Wunderground v.1.15,2013-03-25 14:40:00,
2013-03-25 10:41:00,30.6,25.2,29.57,NW,313,0.0,0.0,80,0.00,,,0.00,Wunderground v.1.15,2013-03-25 14:41:00,
2013-03-25 10:43:00,30.7,25.6,29.57,West,262,0.0,0.0,81,0.00,,,0.00,Wunderground v.1.15,2013-03-25 14:43:00,
2013-03-25 10:45:00,30.7,25.6,29.58,West,269,0.0,0.0,81,0.00,,,0.00,Wunderground v.1.15,2013-03-25 14:45:00,
2013-03-25 10:47:00,30.9,26.1,29.57,WNW,284,0.0,0.0,82,0.00,,,0.00,Wunderground v.1.15,2013-03-25 14:47:00,
2013-03-25 10:48:00,31.0,26.1,29.58,West,277,0.0,0.0,82,0.00,,,0.00,Wunderground v.1.15,2013-03-25 14:48:00,
2013-03-25 10:50:00,31.0,25.6,29.57,WNW,301,0.0,0.0,80,0.00,,,0.00,Wunderground v.1.15,2013-03-25 14:50:00,
2013-03-25 10:52:00,31.0,25.9,29.57,West,265,0.0,0.0,81,0.00,,,0.00,Wunderground v.1.15,2013-03-25 14:52:00,
2013-03-25 10:53:00,31.0,25.6,29.57,NW,321,0.0,0.0,80,0.00,,,0.00,Wunderground v.1.15,2013-03-25 14:53:00,
2013-03-25 10:55:00,31.0,25.2,29.57,WNW,290,0.0,0.0,79,0.00,,,0.00,Wunderground v.1.15,2013-03-25 14:55:00,
2013-03-25 10:57:00,31.0,25.6,29.57,West,274,0.0,0.0,80,0.00,,,0.00,Wunderground v.1.15,2013-03-25 14:57:00,
2013-03-25 10:58:00,31.1,25.7,29.57,West,265,0.0,0.0,80,0.00,,,0.00,Wunderground v.1.15,2013-03-25 14:58:00,
2013-03-25 10:59:00,31.1,25.7,29.57,SW,232,0.0,0.0,80,0.00,,,0.00,Wunderground v.1.15,2013-03-25 14:59:00,
2013-03-25 11:00:00,31.1,25.3,29.57,West,263,0.0,0.0,79,0.00,,,0.00,Wunderground v.1.15,2013-03-25 15:00:00,
2013-03-25 11:02:00,31.2,25.7,29.57,West,279,0.0,0.0,80,0.00,,,0.00,Wunderground v.1.15,2013-03-25 15:02:00,
2013-03-25 11:04:00,31.2,25.7,29.57,WNW,292,0.0,0.0,80,0.00,,,0.00,Wunderground v.1.15,2013-03-25 15:04:00,
2013-03-25 11:05:00,31.2,25.4,29.57,NW,313,0.0,0.0,79,0.00,,,0.00,Wunderground v.1.15,2013-03-25 15:05:00,
2013-03-25 11:08:00,31.4,25.9,29.57,WSW,248,0.0,0.0,80,0.00,,,0.00,Wunderground v.1.15,2013-03-25 15:08:00,
2013-03-25 11:09:00,31.4,25.9,29.57,WSW,253,0.0,0.0,80,0.00,,,0.00,Wunderground v.1.15,2013-03-25 15:09:00,
2013-03-25 11:10:00,31.4,25.9,29.58,West,277,0.0,0.0,80,0.00,,,0.00,Wunderground v.1.15,2013-03-25 15:10:00,
2013-03-25 11:13:00,31.5,25.7,29.57,West,273,0.0,0.0,79,0.00,,,0.01,Wunderground v.1.15,2013-03-25 15:13:00,
2013-03-25 11:14:00,31.5,25.4,29.57,West,267,0.0,0.0,78,0.00,,,0.01,Wunderground v.1.15,2013-03-25 15:14:00,
2013-03-25 11:16:00,31.5,25.4,29.58,West,266,0.0,0.0,78,0.00,,,0.01,Wunderground v.1.15,2013-03-25 15:16:00,
2013-03-25 11:18:00,31.5,25.1,29.58,NW,313,0.0,0.0,77,0.00,,,0.01,Wunderground v.1.15,2013-03-25 15:18:00,
2013-03-25 11:19:00,31.5,25.1,29.58,West,270,0.0,0.0,77,0.00,,,0.01,Wunderground v.1.15,2013-03-25 15:19:00,
2013-03-25 11:20:00,31.5,25.4,29.58,West,267,0.0,0.0,78,0.00,,,0.01,Wunderground v.1.15,2013-03-25 15:20:00,
2013-03-25 11:22:00,31.5,25.4,29.58,NW,311,0.0,0.0,78,0.00,,,0.01,Wunderground v.1.15,2013-03-25 15:22:00,
2013-03-25 11:24:00,31.7,25.9,29.58,West,263,0.0,0.0,79,0.00,,,0.01,Wunderground v.1.15,2013-03-25 15:24:00,
2013-03-25 11:25:00,31.8,26.0,29.58,NW,323,0.0,0.0,79,0.00,,,0.01,Wunderground v.1.15,2013-03-25 15:25:00,
2013-03-25 11:27:00,31.9,25.8,29.58,West,265,0.0,0.0,78,0.00,,,0.01,Wunderground v.1.15,2013-03-25 15:27:00,
2013-03-25 11:30:00,31.9,25.2,29.58,West,276,0.0,0.0,76,0.00,,,0.01,Wunderground v.1.15,2013-03-25 15:30:00,
2013-03-25 11:31:00,32.0,25.9,29.58,WNW,294,0.0,0.0,78,0.00,,,0.01,Wunderground v.1.15,2013-03-25 15:31:00,
2013-03-25 11:32:00,32.0,25.6,29.58,WNW,301,0.0,0.0,77,0.00,,,0.01,Wunderground v.1.15,2013-03-25 15:32:00,
2013-03-25 11:35:00,32.1,25.7,29.58,West,263,0.0,0.0,77,0.00,,,0.02,Wunderground v.1.15,2013-03-25 15:35:00,
2013-03-25 11:36:00,32.1,25.7,29.58,South,184,0.0,0.0,77,0.00,,,0.02,Wunderground v.1.15,2013-03-25 15:36:00,
2013-03-25 11:38:00,32.2,25.8,29.58,NW,304,0.0,0.0,77,0.00,,,0.02,Wunderground v.1.15,2013-03-25 15:38:00,
2013-03-25 11:40:00,32.0,25.0,29.58,WNW,298,0.0,0.0,75,0.00,,,0.02,Wunderground v.1.15,2013-03-25 15:40:00,
2013-03-25 11:41:00,32.0,25.0,29.58,WSW,250,0.0,0.0,75,0.00,,,0.02,Wunderground v.1.15,2013-03-25 15:41:00,
2013-03-25 11:43:00,31.9,25.2,29.58,WNW,291,0.0,0.0,76,0.00,,,0.02,Wunderground v.1.15,2013-03-25 15:43:00,
2013-03-25 11:46:00,31.8,25.4,29.58,WNW,282,0.0,0.0,77,0.00,,,0.02,Wunderground v.1.15,2013-03-25 15:46:00,
2013-03-25 11:48:00,31.7,25.0,29.58,WSW,258,0.0,0.0,76,0.00,,,0.02,Wunderground v.1.15,2013-03-25 15:48:00,
2013-03-25 11:52:00,31.3,24.9,29.58,West,275,0.0,0.0,77,0.00,,,0.02,Wunderground v.1.15,2013-03-25 15:52:00,
2013-03-25 11:53:00,31.3,24.9,29.58,West,277,0.0,0.0,77,0.00,,,0.02,Wunderground v.1.15,2013-03-25 15:53:00,
2013-03-25 11:57:00,31.4,25.3,29.58,NW,306,0.0,0.0,78,0.00,,,0.03,Wunderground v.1.15,2013-03-25 15:57:00,
2013-03-25 11:59:00,31.5,25.4,29.58,WSW,254,0.0,0.0,78,0.00,,,0.03,Wunderground v.1.15,2013-03-25 15:59:00,
2013-03-25 12:02:00,31.7,25.3,29.59,West,275,0.0,0.0,77,0.00,,,0.03,Wunderground v.1.15,2013-03-25 16:02:00,
2013-03-25 12:04:00,31.7,25.3,29.59,WNW,283,0.0,0.0,77,0.00,,,0.03,Wunderground v.1.15,2013-03-25 16:04:00,
2013-03-25 12:05:00,31.7,25.3,29.59,WNW,283,0.0,0.0,77,0.00,,,0.03,Wunderground v.1.15,2013-03-25 16:05:00,
2013-03-25 12:07:00,31.6,24.9,29.59,West,263,0.0,0.0,76,0.00,,,0.03,Wunderground v.1.15,2013-03-25 16:07:00,
2013-03-25 12:10:00,31.6,25.2,29.59,West,261,0.0,0.0,77,0.00,,,0.03,Wunderground v.1.15,2013-03-25 16:10:00,
2013-03-25 12:13:00,31.8,25.7,29.59,West,279,0.0,0.0,78,0.04,,,0.04,Wunderground v.1.15,2013-03-25 16:13:00,
2013-03-25 12:15:00,31.9,25.2,29.59,WSW,251,0.0,0.0,76,0.04,,,0.04,Wunderground v.1.15,2013-03-25 16:15:00,
2013-03-25 12:18:00,32.1,26.0,29.59,West,265,0.0,0.0,78,0.04,,,0.04,Wunderground v.1.15,2013-03-25 16:18:00,
2013-03-25 12:20:00,32.2,25.5,29.59,West,277,0.0,0.0,76,0.04,,,0.04,Wunderground v.1.15,2013-03-25 16:20:00,
2013-03-25 12:22:00,32.1,25.1,29.59,WNW,296,0.0,0.0,75,0.04,,,0.04,Wunderground v.1.15,2013-03-25 16:22:00,
2013-03-25 12:23:00,32.1,25.1,29.59,WNW,295,0.0,0.0,75,0.04,,,0.04,Wunderground v.1.15,2013-03-25 16:23:00,
2013-03-25 12:27:00,31.9,24.9,29.59,West,262,0.0,0.0,75,0.00,,,0.04,Wunderground v.1.15,2013-03-25 16:27:00,
2013-03-25 12:29:00,31.9,24.9,29.59,WNW,282,0.0,0.0,75,0.00,,,0.04,Wunderground v.1.15,2013-03-25 16:29:00,
2013-03-25 12:33:00,31.9,24.9,29.59,West,265,0.0,0.0,75,0.00,,,0.05,Wunderground v.1.15,2013-03-25 16:33:00,
2013-03-25 12:34:00,31.9,24.9,29.59,WSW,244,0.0,0.0,75,0.00,,,0.05,Wunderground v.1.15,2013-03-25 16:34:00,
2013-03-25 12:39:00,32.1,25.1,29.59,WNW,298,0.0,0.0,75,0.00,,,0.05,Wunderground v.1.15,2013-03-25 16:39:00,
2013-03-25 12:41:00,32.2,25.2,29.59,West,259,0.0,0.0,75,0.06,,,0.06,Wunderground v.1.15,2013-03-25 16:41:00,
2013-03-25 12:44:00,32.3,24.9,29.59,WSW,254,0.0,0.0,74,0.06,,,0.06,Wunderground v.1.15,2013-03-25 16:44:00,
2013-03-25 12:46:00,32.3,24.6,29.59,WNW,300,0.0,0.0,73,0.06,,,0.06,Wunderground v.1.15,2013-03-25 16:46:00,
2013-03-25 12:49:00,32.5,24.5,29.59,WNW,291,0.0,0.0,72,0.06,,,0.07,Wunderground v.1.15,2013-03-25 16:49:00,
2013-03-25 12:51:00,32.3,24.3,29.59,West,277,0.0,0.0,72,0.06,,,0.07,Wunderground v.1.15,2013-03-25 16:51:00,
2013-03-25 12:54:00,32.1,23.8,29.59,West,260,0.0,0.0,71,0.06,,,0.07,Wunderground v.1.15,2013-03-25 16:54:00,
2013-03-25 12:55:00,32.1,23.8,29.59,West,274,0.0,0.0,71,0.06,,,0.07,Wunderground v.1.15,2013-03-25 16:55:00,
2013-03-25 12:56:00,32.0,24.0,29.59,West,281,0.0,0.0,72,0.08,,,0.07,Wunderground v.1.15,2013-03-25 16:56:00,
2013-03-25 12:59:00,32.0,23.7,29.60,West,265,0.0,0.0,71,0.08,,,0.08,Wunderground v.1.15,2013-03-25 16:59:00,
2013-03-25 13:00:00,32.0,23.7,29.60,WNW,284,0.0,0.0,71,0.08,,,0.08,Wunderground v.1.15,2013-03-25 17:00:00,
2013-03-25 13:01:00,32.0,23.7,29.60,WNW,290,0.0,0.0,71,0.08,,,0.08,Wunderground v.1.15,2013-03-25 17:01:00,
2013-03-25 13:02:00,32.1,23.8,29.59,WNW,289,0.0,0.0,71,0.08,,,0.08,Wunderground v.1.15,2013-03-25 17:02:00,
2013-03-25 13:05:00,32.1,23.8,29.59,West,281,0.0,0.0,71,0.07,,,0.08,Wunderground v.1.15,2013-03-25 17:05:00,
2013-03-25 13:06:00,32.2,24.2,29.59,NW,306,0.0,0.0,72,0.06,,,0.08,Wunderground v.1.15,2013-03-25 17:06:00,
2013-03-25 13:08:00,32.3,24.9,29.60,WSW,252,0.0,0.0,74,0.06,,,0.09,Wunderground v.1.15,2013-03-25 17:08:00,
2013-03-25 13:10:00,32.6,24.6,29.59,WNW,287,0.0,0.0,72,0.06,,,0.09,Wunderground v.1.15,2013-03-25 17:10:00,
2013-03-25 13:11:00,32.8,24.1,29.60,WNW,292,0.0,0.0,70,0.06,,,0.09,Wunderground v.1.15,2013-03-25 17:11:00,
2013-03-25 13:13:00,32.8,23.0,29.60,WNW,298,0.0,0.0,67,0.06,,,0.09,Wunderground v.1.15,2013-03-25 17:13:00,
2013-03-25 13:15:00,32.8,22.7,29.60,WSW,257,0.0,0.0,66,0.06,,,0.09,Wunderground v.1.15,2013-03-25 17:15:00,
2013-03-25 13:17:00,32.7,22.9,29.59,WNW,290,0.0,0.0,67,0.06,,,0.10,Wunderground v.1.15,2013-03-25 17:17:00,
2013-03-25 13:18:00,32.6,22.8,29.59,WSW,258,0.0,0.0,67,0.06,,,0.10,Wunderground v.1.15,2013-03-25 17:18:00,
2013-03-25 13:20:00,32.5,23.1,29.60,WSW,249,0.0,0.0,68,0.06,,,0.10,Wunderground v.1.15,2013-03-25 17:20:00,
2013-03-25 13:22:00,32.4,23.4,29.60,WNW,287,0.0,0.0,69,0.06,,,0.10,Wunderground v.1.15,2013-03-25 17:22:00,
2013-03-25 13:23:00,32.3,23.3,29.60,West,280,0.0,0.0,69,0.06,,,0.10,Wunderground v.1.15,2013-03-25 17:23:00,
2013-03-25 13:25:00,32.2,23.2,29.60,WSW,256,0.0,0.0,69,0.06,,,0.10,Wunderground v.1.15,2013-03-25 17:25:00,
2013-03-25 13:29:00,32.0,23.3,29.60,WNW,294,0.0,0.0,70,0.06,,,0.11,Wunderground v.1.15,2013-03-25 17:29:00,
2013-03-25 13:30:00,31.9,23.2,29.60,West,277,0.0,0.0,70,0.06,,,0.11,Wunderground v.1.15,2013-03-25 17:30:00,
2013-03-25 13:34:00,31.7,23.4,29.60,WNW,301,0.0,0.0,71,0.06,,,0.11,Wunderground v.1.15,2013-03-25 17:34:00,
2013-03-25 13:35:00,31.6,23.6,29.60,WNW,302,0.0,0.0,72,0.06,,,0.11,Wunderground v.1.15,2013-03-25 17:35:00,
2013-03-25 13:39:00,31.6,23.6,29.60,West,266,0.0,0.0,72,0.07,,,0.12,Wunderground v.1.15,2013-03-25 17:39:00,
2013-03-25 13:40:00,31.5,23.5,29.60,WNW,283,0.0,0.0,72,0.07,,,0.12,Wunderground v.1.15,2013-03-25 17:40:00,
2013-03-25 13:45:00,31.5,23.5,29.60,NW,310,0.0,0.0,72,0.07,,,0.12,Wunderground v.1.15,2013-03-25 17:45:00,
2013-03-25 13:46:00,31.5,23.5,29.60,WNW,299,0.0,0.0,72,0.06,,,0.12,Wunderground v.1.15,2013-03-25 17:46:00,
2013-03-25 13:47:00,31.4,23.7,29.60,West,273,0.0,0.0,73,0.05,,,0.12,Wunderground v.1.15,2013-03-25 17:47:00,
2013-03-25 13:50:00,31.4,24.4,29.60,West,260,0.0,0.0,75,0.04,,,0.12,Wunderground v.1.15,2013-03-25 17:50:00,
2013-03-25 13:51:00,31.4,24.4,29.60,NW,323,0.0,0.0,75,0.04,,,0.12,Wunderground v.1.15,2013-03-25 17:51:00,
2013-03-25 13:52:00,31.3,24.3,29.60,NW,304,0.0,0.0,75,0.04,,,0.12,Wunderground v.1.15,2013-03-25 17:52:00,
2013-03-25 13:55:00,31.4,24.7,29.60,NW,310,0.0,0.0,76,0.00,,,0.12,Wunderground v.1.15,2013-03-25 17:55:00,
2013-03-25 13:56:00,31.4,24.7,29.60,WNW,282,0.0,0.0,76,0.00,,,0.12,Wunderground v.1.15,2013-03-25 17:56:00,
2013-03-25 13:57:00,31.6,24.9,29.60,WNW,292,0.0,0.0,76,0.00,,,0.12,Wunderground v.1.15,2013-03-25 17:57:00,
2013-03-25 14:00:00,31.8,24.5,29.60,West,267,0.0,0.0,74,0.00,,,0.12,Wunderground v.1.15,2013-03-25 18:00:00,
2013-03-25 14:01:00,31.8,24.5,29.60,WNW,290,0.0,0.0,74,0.00,,,0.12,Wunderground v.1.15,2013-03-25 18:01:00,
2013-03-25 14:03:00,31.9,24.9,29.60,West,269,0.0,0.0,75,0.00,,,0.12,Wunderground v.1.15,2013-03-25 18:03:00,
2013-03-25 14:04:00,31.9,24.9,29.60,West,263,0.0,0.0,75,0.00,,,0.12,Wunderground v.1.15,2013-03-25 18:04:00,
2013-03-25 14:05:00,31.9,24.9,29.60,NNW,345,0.0,0.0,75,0.00,,,0.12,Wunderground v.1.15,2013-03-25 18:05:00,
2013-03-25 14:06:00,31.9,25.0,29.60,West,271,0.0,0.0,75,0.04,,,0.12,weatherlink.com 1.10,2013-03-25 18:06:00,
2013-03-25 14:09:00,32.1,24.7,29.60,West,261,8.0,10.0,74,0.00,,,0.12,Wunderground v.1.15,2013-03-25 18:09:00,
2013-03-25 14:10:00,32.1,24.7,29.59,WNW,298,17.0,22.0,74,0.00,,,0.13,Wunderground v.1.15,2013-03-25 18:10:00,
2013-03-25 14:13:00,32.3,24.9,29.60,West,266,9.0,22.0,74,0.00,,,0.13,Wunderground v.1.15,2013-03-25 18:13:00,
2013-03-25 14:14:00,32.4,25.0,29.60,WSW,258,5.0,22.0,74,0.00,,,0.13,Wunderground v.1.15,2013-03-25 18:14:00,
2013-03-25 14:15:00,32.5,24.8,29.60,WSW,242,10.0,22.0,73,0.00,,,0.13,Wunderground v.1.15,2013-03-25 18:15:00,
2013-03-25 14:18:00,32.6,24.2,29.60,West,273,4.0,22.0,71,0.00,,,0.13,Wunderground v.1.15,2013-03-25 18:18:00,
2013-03-25 14:19:00,32.7,24.7,29.60,WNW,298,5.0,22.0,72,0.00,,,0.13,Wunderground v.1.15,2013-03-25 18:19:00,
2013-03-25 14:20:00,32.7,24.7,29.59,WNW,295,16.0,16.0,72,0.00,,,0.13,Wunderground v.1.15,2013-03-25 18:20:00,
2013-03-25 14:21:00,32.7,24.7,29.60,WSW,252,19.0,19.0,72,0.00,,,0.13,Wunderground v.1.15,2013-03-25 18:21:00,
2013-03-25 14:23:00,32.6,25.2,29.59,WSW,246,11.0,21.0,74,0.00,,,0.13,Wunderground v.1.15,2013-03-25 18:23:00,
2013-03-25 14:24:00,32.7,25.0,29.59,West,275,9.0,21.0,73,0.00,,,0.13,Wunderground v.1.15,2013-03-25 18:24:00,
2013-03-25 14:25:00,32.7,24.7,29.59,WSW,241,10.0,21.0,72,0.00,,,0.13,Wunderground v.1.15,2013-03-25 18:25:00,
2013-03-25 14:26:00,32.7,24.7,29.59,West,268,11.0,21.0,72,0.00,,,0.13,Wunderground v.1.15,2013-03-25 18:26:00,
2013-03-25 14:29:00,32.7,24.7,29.59,West,269,12.0,21.0,72,0.04,,,0.14,Wunderground v.1.15,2013-03-25 18:29:00,
2013-03-25 14:30:00,32.7,24.7,29.59,WNW,302,8.0,14.0,72,0.04,,,0.14,Wunderground v.1.15,2013-03-25 18:30:00,
2013-03-25 14:33:00,32.8,24.8,29.59,WNW,285,12.0,14.0,72,0.04,,,0.14,Wunderground v.1.15,2013-03-25 18:33:00,
2013-03-25 14:34:00,32.9,25.2,29.59,WSW,252,8.0,14.0,73,0.04,,,0.14,Wunderground v.1.15,2013-03-25 18:34:00,
2013-03-25 14:35:00,32.9,25.2,29.59,WSW,250,8.0,14.0,73,0.04,,,0.14,Wunderground v.1.15,2013-03-25 18:35:00,
2013-03-25 14:39:00,32.9,25.5,29.60,West,269,8.0,16.0,74,0.04,,,0.14,Wunderground v.1.15,2013-03-25 18:39:00,
2013-03-25 14:40:00,32.8,26.1,29.60,West,272,13.0,15.0,76,0.04,,,0.14,Wunderground v.1.15,2013-03-25 18:40:00,
2013-03-25 14:41:00,32.8,26.1,29.60,West,277,7.0,15.0,76,0.04,,,0.14,Wunderground v.1.15,2013-03-25 18:41:00,
2013-03-25 14:44:00,32.1,26.6,29.60,WSW,258,6.0,15.0,80,0.04,,,0.15,Wunderground v.1.15,2013-03-25 18:44:00,
2013-03-25 14:46:00,32.0,26.8,29.60,West,262,7.0,15.0,81,0.04,,,0.15,Wunderground v.1.15,2013-03-25 18:46:00,
2013-03-25 14:49:00,31.6,27.0,29.60,NW,309,6.0,15.0,83,0.04,,,0.15,Wunderground v.1.15,2013-03-25 18:49:00,
2013-03-25 14:50:00,31.6,26.7,29.60,West,263,7.0,14.0,82,0.04,,,0.15,Wunderground v.1.15,2013-03-25 18:50:00,
2013-03-25 14:51:00,31.6,26.7,29.60,West,263,7.0,14.0,82,0.04,,,0.15,Wunderground v.1.15,2013-03-25 18:51:00,
2013-03-25 14:53:00,31.7,26.8,29.59,SW,236,11.0,14.0,82,0.05,,,0.16,Wunderground v.1.15,2013-03-25 18:53:00,
2013-03-25 14:55:00,31.9,25.8,29.59,WNW,284,11.0,15.0,78,0.05,,,0.16,Wunderground v.1.15,2013-03-25 18:55:00,
2013-03-25 14:57:00,32.1,25.4,29.59,West,260,13.0,15.0,76,0.05,,,0.16,Wunderground v.1.15,2013-03-25 18:57:00,
2013-03-25 14:58:00,32.2,25.5,29.59,WNW,299,5.0,15.0,76,0.05,,,0.16,Wunderground v.1.15,2013-03-25 18:58:00,
2013-03-25 15:00:00,32.4,25.7,29.59,WSW,254,4.0,9.0,76,0.05,,,0.16,Wunderground v.1.15,2013-03-25 19:00:00,
2013-03-25 15:02:00,32.6,25.6,29.59,NW,306,12.0,14.0,75,0.05,,,0.16,Wunderground v.1.15,2013-03-25 19:02:00,
2013-03-25 15:03:00,32.8,25.4,29.59,WNW,287,10.0,14.0,74,0.06,,,0.17,Wunderground v.1.15,2013-03-25 19:03:00,
2013-03-25 15:05:00,33.0,25.6,29.59,WNW,296,6.0,14.0,74,0.06,,,0.17,Wunderground v.1.15,2013-03-25 19:05:00,
2013-03-25 15:07:00,33.2,25.5,29.59,WSW,250,8.0,22.0,73,0.06,,,0.17,Wunderground v.1.15,2013-03-25 19:07:00,
2013-03-25 15:08:00,33.5,25.8,29.59,WSW,246,8.0,22.0,73,0.06,,,0.17,Wunderground v.1.15,2013-03-25 19:08:00,
2013-03-25 15:10:00,33.7,25.3,29.59,West,275,11.0,19.0,71,0.06,,,0.17,Wunderground v.1.15,2013-03-25 19:10:00,
2013-03-25 15:12:00,33.7,25.0,29.59,SSW,198,4.0,19.0,70,0.07,,,0.18,Wunderground v.1.15,2013-03-25 19:12:00,
2013-03-25 15:13:00,33.8,25.0,29.59,West,271,11.0,20.0,70,0.07,,,0.18,Wunderground v.1.15,2013-03-25 19:13:00,
2013-03-25 15:16:00,33.6,24.5,29.59,West,259,7.0,20.0,69,0.07,,,0.18,Wunderground v.1.15,2013-03-25 19:16:00,
2013-03-25 15:18:00,33.6,24.9,29.59,West,260,14.0,20.0,70,0.07,,,0.18,Wunderground v.1.15,2013-03-25 19:18:00,
2013-03-25 15:19:00,33.6,24.9,29.59,West,263,9.0,20.0,70,0.07,,,0.18,Wunderground v.1.15,2013-03-25 19:19:00,
2013-03-25 15:22:00,33.4,24.0,29.59,WSW,241,14.0,22.0,68,0.05,,,0.18,Wunderground v.1.15,2013-03-25 19:22:00,
2013-03-25 15:23:00,33.4,24.0,29.59,West,263,11.0,22.0,68,0.05,,,0.18,Wunderground v.1.15,2013-03-25 19:23:00,
2013-03-25 15:24:00,33.2,23.8,29.59,West,261,13.0,22.0,68,0.05,,,0.19,Wunderground v.1.15,2013-03-25 19:24:00,
2013-03-25 15:27:00,32.9,24.2,29.59,WSW,254,9.0,22.0,70,0.05,,,0.19,Wunderground v.1.15,2013-03-25 19:27:00,
2013-03-25 15:28:00,32.9,24.2,29.59,West,262,8.0,22.0,70,0.05,,,0.19,Wunderground v.1.15,2013-03-25 19:28:00,
2013-03-25 15:29:00,32.9,26.2,29.59,West,259,6.0,22.0,76,0.05,,,0.19,Wunderground v.1.15,2013-03-25 19:29:00,
2013-03-25 15:33:00,32.8,24.8,29.59,WSW,255,10.0,15.0,72,0.05,,,0.19,Wunderground v.1.15,2013-03-25 19:33:00,
2013-03-25 15:34:00,32.8,24.8,29.59,North,350,9.0,15.0,72,0.05,,,0.19,Wunderground v.1.15,2013-03-25 19:34:00,
2013-03-25 15:35:00,32.8,24.8,29.59,WSW,250,10.0,15.0,72,0.05,,,0.19,Wunderground v.1.15,2013-03-25 19:35:00,
2013-03-25 15:38:00,33.0,25.6,29.60,West,274,9.0,15.0,74,0.04,,,0.19,Wunderground v.1.15,2013-03-25 19:38:00,
2013-03-25 15:40:00,33.2,25.5,29.60,WNW,296,7.0,10.0,73,0.04,,,0.19,Wunderground v.1.15,2013-03-25 19:40:00,
2013-03-25 15:41:00,33.2,25.5,29.60,NW,304,8.0,11.0,73,0.00,,,0.19,Wunderground v.1.15,2013-03-25 19:41:00,
2013-03-25 15:43:00,33.4,25.3,29.60,WSW,256,7.0,18.0,72,0.00,,,0.20,Wunderground v.1.15,2013-03-25 19:43:00,
2013-03-25 15:44:00,33.4,25.3,29.60,WNW,286,13.0,18.0,72,0.00,,,0.20,Wunderground v.1.15,2013-03-25 19:44:00,
2013-03-25 15:47:00,33.0,25.0,29.60,West,281,6.0,18.0,72,0.00,,,0.20,Wunderground v.1.15,2013-03-25 19:47:00,
2013-03-25 15:49:00,32.9,24.9,29.60,West,281,29.0,29.0,72,0.00,,,0.20,Wunderground v.1.15,2013-03-25 19:49:00,
2013-03-25 15:50:00,32.8,24.8,29.60,WNW,282,11.0,11.0,72,0.00,,,0.20,Wunderground v.1.15,2013-03-25 19:50:00,
2013-03-25 15:53:00,32.5,25.1,29.60,West,270,5.0,13.0,74,0.00,,,0.20,Wunderground v.1.15,2013-03-25 19:53:00,
2013-03-25 15:54:00,32.3,25.3,29.60,West,263,6.0,15.0,75,0.00,,,0.20,Wunderground v.1.15,2013-03-25 19:54:00,
2013-03-25 15:55:00,32.3,25.3,29.60,WNW,295,13.0,15.0,75,0.00,,,0.20,Wunderground v.1.15,2013-03-25 19:55:00,
2013-03-25 15:58:00,32.2,25.2,29.60,WSW,257,4.0,15.0,75,0.00,,,0.20,Wunderground v.1.15,2013-03-25 19:58:00,
2013-03-25 15:59:00,32.3,25.3,29.60,WSW,253,10.0,15.0,75,0.00,,,0.20,Wunderground v.1.15,2013-03-25 19:59:00,
2013-03-25 16:00:00,32.3,25.3,29.60,West,275,9.0,10.0,75,0.00,,,0.20,Wunderground v.1.15,2013-03-25 20:00:00,
2013-03-25 16:01:00,32.3,25.3,29.60,NW,304,5.0,10.0,75,0.00,,,0.20,Wunderground v.1.15,2013-03-25 20:01:00,
2013-03-25 16:03:00,32.5,25.5,29.61,WSW,250,5.0,11.0,75,0.00,,,0.20,Wunderground v.1.15,2013-03-25 20:03:00,
2013-03-25 16:04:00,32.5,25.5,29.61,WSW,246,6.0,11.0,75,0.00,,,0.20,Wunderground v.1.15,2013-03-25 20:04:00,
2013-03-25 16:05:00,32.6,25.6,29.60,West,269,5.0,11.0,75,0.00,,,0.20,Wunderground v.1.15,2013-03-25 20:05:00,
2013-03-25 16:06:00,32.7,25.6,29.60,NNW,336,2.0,11.0,75,0.00,,,0.20,Wunderground v.1.15,2013-03-25 20:06:00,
2013-03-25 16:09:00,33.0,25.3,29.61,WNW,289,11.0,13.0,73,0.00,,,0.21,Wunderground v.1.15,2013-03-25 20:09:00,
2013-03-25 16:10:00,33.1,25.1,29.60,WNW,290,11.0,12.0,72,0.00,,,0.21,Wunderground v.1.15,2013-03-25 20:10:00,
2013-03-25 16:12:00,33.1,25.1,29.60,NW,312,14.0,15.0,72,0.00,,,0.21,Wunderground v.1.15,2013-03-25 20:12:00,
2013-03-25 16:14:00,33.1,24.7,29.61,West,270,12.0,19.0,71,0.00,,,0.21,Wunderground v.1.15,2013-03-25 20:14:00,
2013-03-25 16:15:00,33.0,23.9,29.61,WNW,292,11.0,20.0,69,0.00,,,0.21,Wunderground v.1.15,2013-03-25 20:15:00,
2013-03-25 16:17:00,32.8,23.7,29.61,WNW,299,13.0,20.0,69,0.00,,,0.21,Wunderground v.1.15,2013-03-25 20:17:00,
2013-03-25 16:19:00,32.6,23.6,29.61,WSW,251,10.0,21.0,69,0.00,,,0.21,Wunderground v.1.15,2013-03-25 20:19:00,
2013-03-25 16:20:00,32.4,23.7,29.61,West,261,14.0,14.0,70,0.00,,,0.21,Wunderground v.1.15,2013-03-25 20:20:00,
2013-03-25 16:22:00,32.3,23.6,29.61,WNW,287,15.0,15.0,70,0.00,,,0.21,Wunderground v.1.15,2013-03-25 20:22:00,
2013-03-25 16:24:00,32.3,23.9,29.62,West,267,8.0,20.0,71,0.00,,,0.21,Wunderground v.1.15,2013-03-25 20:24:00,
2013-03-25 16:25:00,32.3,23.9,29.62,WNW,300,9.0,20.0,71,0.00,,,0.21,Wunderground v.1.15,2013-03-25 20:25:00,
2013-03-25 16:26:00,32.4,24.0,29.61,WNW,293,13.0,20.0,71,0.00,,,0.21,Wunderground v.1.15,2013-03-25 20:26:00,
2013-03-25 16:28:00,32.5,24.1,29.61,WNW,288,7.0,20.0,71,0.00,,,0.21,Wunderground v.1.15,2013-03-25 20:28:00,
2013-03-25 16:29:00,32.8,24.8,29.61,West,280,9.0,20.0,72,0.00,,,0.21,Wunderground v.1.15,2013-03-25 20:29:00,
2013-03-25 16:30:00,32.9,24.9,29.61,WSW,247,7.0,14.0,72,0.00,,,0.21,Wunderground v.1.15,2013-03-25 20:30:00,
2013-03-25 16:31:00,33.1,25.1,29.62,WNW,290,7.0,14.0,72,0.00,,,0.21,Wunderground v.1.15,2013-03-25 20:31:00,
2013-03-25 16:33:00,33.3,25.2,29.62,West,265,7.0,15.0,72,0.00,,,0.21,Wunderground v.1.15,2013-03-25 20:33:00,
2013-03-25 16:34:00,33.4,25.3,29.61,WNW,302,14.0,22.0,72,0.00,,,0.21,Wunderground v.1.15,2013-03-25 20:34:00,
2013-03-25 16:35:00,33.4,24.7,29.62,WSW,250,12.0,22.0,70,0.00,,,0.21,Wunderground v.1.15,2013-03-25 20:35:00,
2013-03-25 16:37:00,33.6,24.9,29.61,West,272,14.0,22.0,70,0.00,,,0.21,Wunderground v.1.15,2013-03-25 20:37:00,
2013-03-25 16:39:00,33.7,25.0,29.62,NW,317,8.0,22.0,70,0.00,,,0.22,Wunderground v.1.15,2013-03-25 20:39:00,
2013-03-25 16:40:00,33.7,24.6,29.62,NW,310,11.0,11.0,69,0.00,,,0.22,Wunderground v.1.15,2013-03-25 20:40:00,
2013-03-25 16:42:00,33.5,24.4,29.62,West,271,6.0,12.0,69,0.00,,,0.22,Wunderground v.1.15,2013-03-25 20:42:00,
2013-03-25 16:45:00,33.3,24.2,29.62,WNW,292,10.0,12.0,69,0.00,,,0.22,Wunderground v.1.15,2013-03-25 20:45:00,
2013-03-25 16:47:00,33.1,24.0,29.62,WNW,290,14.0,19.0,69,0.00,,,0.22,Wunderground v.1.15,2013-03-25 20:47:00,
2013-03-25 16:50:00,32.9,24.2,29.62,WNW,287,14.0,17.0,70,0.00,,,0.22,Wunderground v.1.15,2013-03-25 20:50:00,
2013-03-25 16:51:00,32.8,24.1,29.62,West,275,7.0,17.0,70,0.00,,,0.22,Wunderground v.1.15,2013-03-25 20:51:00,
2013-03-25 16:52:00,32.6,24.2,29.62,NW,313,9.0,17.0,71,0.00,,,0.22,Wunderground v.1.15,2013-03-25 20:52:00,
2013-03-25 16:55:00,32.3,24.9,29.63,WNW,302,11.0,17.0,74,0.00,,,0.22,Wunderground v.1.15,2013-03-25 20:55:00,
2013-03-25 16:56:00,31.9,24.9,29.63,WNW,286,7.0,17.0,75,0.00,,,0.22,Wunderground v.1.15,2013-03-25 20:56:00,
2013-03-25 16:58:00,31.6,24.9,29.63,West,273,4.0,17.0,76,0.00,,,0.22,Wunderground v.1.15,2013-03-25 20:58:00,
2013-03-25 17:00:00,31.4,25.0,29.63,West,280,7.0,10.0,77,0.00,,,0.22,Wunderground v.1.15,2013-03-25 21:00:00,
2013-03-25 17:02:00,31.2,25.7,29.63,NW,321,10.0,10.0,80,0.00,,,0.22,Wunderground v.1.15,2013-03-25 21:02:00,
2013-03-25 17:04:00,31.0,25.9,29.63,NW,315,9.0,14.0,81,0.00,,,0.22,Wunderground v.1.15,2013-03-25 21:04:00,
2013-03-25 17:05:00,30.8,26.2,29.63,NNW,332,6.0,14.0,83,0.00,,,0.22,Wunderground v.1.15,2013-03-25 21:05:00,
2013-03-25 17:08:00,30.5,26.2,29.63,NW,313,8.0,18.0,84,0.00,,,0.22,Wunderground v.1.15,2013-03-25 21:08:00,
2013-03-25 17:09:00,30.5,26.5,29.64,West,275,7.0,18.0,85,0.00,,,0.22,Wunderground v.1.15,2013-03-25 21:09:00,
2013-03-25 17:10:00,30.5,26.5,29.64,WNW,292,14.0,15.0,85,0.00,,,0.22,Wunderground v.1.15,2013-03-25 21:10:00,
2013-03-25 17:12:00,30.4,26.4,29.64,West,279,8.0,15.0,85,0.00,,,0.22,Wunderground v.1.15,2013-03-25 21:12:00,
2013-03-25 17:13:00,30.4,26.4,29.64,NW,309,8.0,15.0,85,0.00,,,0.22,Wunderground v.1.15,2013-03-25 21:13:00,
2013-03-25 17:14:00,30.3,26.3,29.64,West,269,8.0,15.0,85,0.00,,,0.22,Wunderground v.1.15,2013-03-25 21:14:00,
2013-03-25 17:15:00,30.3,26.3,29.64,WSW,246,10.0,15.0,85,0.00,,,0.22,Wunderground v.1.15,2013-03-25 21:15:00,
2013-03-25 17:17:00,30.4,26.1,29.64,West,259,11.0,16.0,84,0.00,,,0.22,Wunderground v.1.15,2013-03-25 21:17:00,
2013-03-25 17:18:00,30.4,26.1,29.64,West,277,10.0,16.0,84,0.00,,,0.22,Wunderground v.1.15,2013-03-25 21:18:00,
2013-03-25 17:19:00,30.4,25.9,29.64,WNW,296,6.0,16.0,83,0.00,,,0.22,Wunderground v.1.15,2013-03-25 21:19:00,
2013-03-25 17:21:00,30.5,25.7,29.64,NW,326,6.0,14.0,82,0.00,,,0.22,Wunderground v.1.15,2013-03-25 21:21:00,
2013-03-25 17:23:00,30.5,25.4,29.64,West,267,8.0,18.0,81,0.00,,,0.22,Wunderground v.1.15,2013-03-25 21:23:00,
2013-03-25 17:24:00,30.5,25.1,29.64,NW,306,8.0,18.0,80,0.00,,,0.22,Wunderground v.1.15,2013-03-25 21:24:00,
2013-03-25 17:27:00,30.6,24.9,29.65,NNE,15,11.0,19.0,79,0.00,,,0.22,Wunderground v.1.15,2013-03-25 21:27:00,
2013-03-25 17:28:00,30.6,24.9,29.64,WSW,243,12.0,19.0,79,0.00,,,0.22,Wunderground v.1.15,2013-03-25 21:28:00,
2013-03-25 17:29:00,30.7,25.0,29.65,WNW,297,8.0,19.0,79,0.00,,,0.22,Wunderground v.1.15,2013-03-25 21:29:00,
2013-03-25 17:32:00,30.8,25.4,29.65,WNW,294,4.0,13.0,80,0.00,,,0.22,Wunderground v.1.15,2013-03-25 21:32:00,
2013-03-25 17:33:00,31.0,25.2,29.64,NW,308,10.0,14.0,79,0.00,,,0.22,Wunderground v.1.15,2013-03-25 21:33:00,
2013-03-25 17:34:00,31.1,25.3,29.65,West,271,7.0,14.0,79,0.00,,,0.22,Wunderground v.1.15,2013-03-25 21:34:00,
2013-03-25 17:35:00,31.1,25.3,29.65,WNW,286,8.0,14.0,79,0.00,,,0.22,Wunderground v.1.15,2013-03-25 21:35:00,
2013-03-25 17:37:00,31.4,25.3,29.64,WNW,282,6.0,14.0,78,0.00,,,0.22,Wunderground v.1.15,2013-03-25 21:37:00,
2013-03-25 17:38:00,31.6,25.5,29.65,WNW,289,7.0,14.0,78,0.00,,,0.22,Wunderground v.1.15,2013-03-25 21:38:00,
2013-03-25 17:40:00,31.7,25.0,29.65,WNW,289,7.0,8.0,76,0.00,,,0.23,Wunderground v.1.15,2013-03-25 21:40:00,
2013-03-25 17:42:00,31.9,25.2,29.65,WNW,292,7.0,15.0,76,0.00,,,0.23,Wunderground v.1.15,2013-03-25 21:42:00,
2013-03-25 17:44:00,32.0,24.3,29.64,WNW,293,8.0,15.0,73,0.00,,,0.23,Wunderground v.1.15,2013-03-25 21:44:00,
2013-03-25 17:45:00,32.1,24.4,29.65,WNW,285,13.0,15.0,73,0.00,,,0.23,Wunderground v.1.15,2013-03-25 21:45:00,
2013-03-25 17:47:00,32.1,24.1,29.65,NW,304,6.0,15.0,72,0.00,,,0.23,Wunderground v.1.15,2013-03-25 21:47:00,
2013-03-25 17:49:00,32.1,24.1,29.65,WSW,246,10.0,15.0,72,0.00,,,0.23,Wunderground v.1.15,2013-03-25 21:49:00,
2013-03-25 17:50:00,32.2,24.5,29.65,WNW,285,4.0,9.0,73,0.00,,,0.23,Wunderground v.1.15,2013-03-25 21:50:00,
2013-03-25 17:51:00,32.2,24.5,29.65,West,272,12.0,12.0,73,0.00,,,0.23,Wunderground v.1.15,2013-03-25 21:51:00,
2013-03-25 17:52:00,32.3,24.3,29.65,WNW,300,15.0,15.0,72,0.00,,,0.23,Wunderground v.1.15,2013-03-25 21:52:00,
2013-03-25 17:54:00,32.3,24.3,29.65,NNW,328,9.0,18.0,72,0.00,,,0.23,Wunderground v.1.15,2013-03-25 21:54:00,
2013-03-25 17:55:00,32.3,23.9,29.65,West,273,5.0,18.0,71,0.00,,,0.23,Wunderground v.1.15,2013-03-25 21:55:00,
2013-03-25 17:57:00,32.3,23.6,29.65,WSW,247,8.0,18.0,70,0.00,,,0.23,Wunderground v.1.15,2013-03-25 21:57:00,
2013-03-25 17:58:00,32.3,23.9,29.65,West,273,16.0,18.0,71,0.00,,,0.23,Wunderground v.1.15,2013-03-25 21:58:00,
2013-03-25 17:59:00,32.3,23.9,29.65,West,261,11.0,18.0,71,0.00,,,0.23,Wunderground v.1.15,2013-03-25 21:59:00,
2013-03-25 18:02:00,32.3,23.6,29.65,West,277,8.0,15.0,70,0.00,,,0.23,Wunderground v.1.15,2013-03-25 22:02:00,
2013-03-25 18:03:00,32.3,23.6,29.66,West,271,2.0,15.0,70,0.00,,,0.23,Wunderground v.1.15,2013-03-25 22:03:00,
2013-03-25 18:05:00,32.3,23.6,29.66,West,276,7.0,16.0,70,0.00,,,0.23,Wunderground v.1.15,2013-03-25 22:05:00,
2013-03-25 18:07:00,32.4,23.7,29.66,WNW,288,15.0,16.0,70,0.00,,,0.23,Wunderground v.1.15,2013-03-25 22:07:00,
2013-03-25 18:08:00,32.4,23.7,29.66,WNW,286,12.0,16.0,70,0.00,,,0.23,Wunderground v.1.15,2013-03-25 22:08:00,
2013-03-25 18:09:00,32.4,23.7,29.66,WNW,297,13.0,16.0,70,0.00,,,0.23,Wunderground v.1.15,2013-03-25 22:09:00,
2013-03-25 18:10:00,32.3,23.3,29.66,WNW,286,11.0,13.0,69,0.00,,,0.23,Wunderground v.1.15,2013-03-25 22:10:00,
2013-03-25 18:12:00,32.3,23.3,29.66,WSW,257,4.0,13.0,69,0.00,,,0.23,Wunderground v.1.15,2013-03-25 22:12:00,
2013-03-25 18:13:00,32.3,23.3,29.66,West,275,7.0,13.0,69,0.00,,,0.23,Wunderground v.1.15,2013-03-25 22:13:00,
2013-03-25 18:15:00,32.3,23.3,29.66,WNW,288,8.0,13.0,69,0.00,,,0.23,Wunderground v.1.15,2013-03-25 22:15:00,
2013-03-25 18:17:00,32.3,23.3,29.66,NW,304,7.0,14.0,69,0.00,,,0.23,Wunderground v.1.15,2013-03-25 22:17:00,
2013-03-25 18:19:00,32.3,22.9,29.66,WSW,240,13.0,16.0,68,0.00,,,0.23,Wunderground v.1.15,2013-03-25 22:19:00,
2013-03-25 18:20:00,32.3,22.9,29.66,West,279,14.0,14.0,68,0.00,,,0.23,Wunderground v.1.15,2013-03-25 22:20:00,
2013-03-25 18:25:00,32.1,22.0,29.66,WSW,246,14.0,17.0,66,0.00,,,0.23,Wunderground v.1.15,2013-03-25 22:25:00,
2013-03-25 18:26:00,32.1,22.4,29.66,NW,321,10.0,17.0,67,0.00,,,0.23,Wunderground v.1.15,2013-03-25 22:26:00,
2013-03-25 18:30:00,32.0,22.6,29.67,West,262,4.0,10.0,68,0.00,,,0.23,Wunderground v.1.15,2013-03-25 22:30:00,
2013-03-25 18:31:00,32.0,22.6,29.67,West,273,6.0,10.0,68,0.00,,,0.23,Wunderground v.1.15,2013-03-25 22:31:00,
2013-03-25 18:36:00,31.8,22.4,29.67,WNW,295,11.0,11.0,68,0.00,,,0.23,Wunderground v.1.15,2013-03-25 22:36:00,
2013-03-25 18:37:00,31.7,22.7,29.67,West,279,2.0,12.0,69,0.00,,,0.23,Wunderground v.1.15,2013-03-25 22:37:00,
2013-03-25 18:42:00,31.5,23.5,29.68,WNW,292,10.0,11.0,72,0.00,,,0.23,Wunderground v.1.15,2013-03-25 22:42:00,
2013-03-25 18:43:00,31.4,23.4,29.68,North,355,12.0,15.0,72,0.00,,,0.23,Wunderground v.1.15,2013-03-25 22:43:00,
2013-03-25 18:47:00,31.1,23.1,29.68,WNW,290,17.0,23.0,72,0.00,,,0.23,Wunderground v.1.15,2013-03-25 22:47:00,
2013-03-25 18:48:00,31.1,23.1,29.68,NW,310,10.0,23.0,72,0.00,,,0.23,Wunderground v.1.15,2013-03-25 22:48:00,
2013-03-25 18:52:00,30.9,23.3,29.68,WNW,282,7.0,10.0,73,0.00,,,0.23,Wunderground v.1.15,2013-03-25 22:52:00,
2013-03-25 18:53:00,30.8,23.2,29.68,WNW,296,9.0,13.0,73,0.00,,,0.23,Wunderground v.1.15,2013-03-25 22:53:00,
2013-03-25 18:54:00,30.8,23.2,29.68,WNW,295,17.0,17.0,73,0.00,,,0.23,Wunderground v.1.15,2013-03-25 22:54:00,
2013-03-25 18:57:00,30.7,23.4,29.68,WNW,302,11.0,17.0,74,0.00,,,0.23,Wunderground v.1.15,2013-03-25 22:57:00,
2013-03-25 18:58:00,30.6,23.6,29.68,West,270,13.0,17.0,75,0.00,,,0.23,Wunderground v.1.15,2013-03-25 22:58:00,
2013-03-25 18:59:00,30.5,23.5,29.68,WNW,286,8.0,17.0,75,0.00,,,0.23,Wunderground v.1.15,2013-03-25 22:59:00,
2013-03-25 19:02:00,30.3,23.6,29.68,NNW,348,9.0,15.0,76,0.00,,,0.23,Wunderground v.1.15,2013-03-25 23:02:00,
2013-03-25 19:03:00,30.2,23.5,29.68,West,273,5.0,17.0,76,0.00,,,0.23,Wunderground v.1.15,2013-03-25 23:03:00,
2013-03-25 19:04:00,30.1,23.4,29.68,West,269,7.0,17.0,76,0.00,,,0.23,Wunderground v.1.15,2013-03-25 23:04:00,
2013-03-25 19:07:00,30.0,23.7,29.69,WNW,294,6.0,17.0,77,0.00,,,0.23,Wunderground v.1.15,2013-03-25 23:07:00,
2013-03-25 19:08:00,30.0,23.4,29.68,WNW,284,15.0,18.0,76,0.00,,,0.23,Wunderground v.1.15,2013-03-25 23:08:00,
2013-03-25 19:10:00,29.9,23.3,29.69,WNW,286,6.0,9.0,76,0.00,,,0.23,Wunderground v.1.15,2013-03-25 23:10:00,
2013-03-25 19:13:00,29.8,23.2,29.69,WNW,296,5.0,16.0,76,0.00,,,0.23,Wunderground v.1.15,2013-03-25 23:13:00,
2013-03-25 19:14:00,29.8,23.2,29.69,WNW,288,5.0,16.0,76,0.00,,,0.23,Wunderground v.1.15,2013-03-25 23:14:00,
2013-03-25 19:15:00,29.8,23.2,29.69,West,281,4.0,16.0,76,0.00,,,0.23,Wunderground v.1.15,2013-03-25 23:15:00,
2013-03-25 19:18:00,29.7,23.4,29.70,NW,311,11.0,18.0,77,0.00,,,0.23,Wunderground v.1.15,2013-03-25 23:18:00,
2013-03-25 19:19:00,29.7,23.4,29.70,West,272,8.0,18.0,77,0.00,,,0.23,Wunderground v.1.15,2013-03-25 23:19:00,
2013-03-25 19:20:00,29.6,23.3,29.70,WNW,290,4.0,8.0,77,0.00,,,0.23,Wunderground v.1.15,2013-03-25 23:20:00,
2013-03-25 19:23:00,29.6,23.3,29.70,WNW,288,9.0,11.0,77,0.00,,,0.23,Wunderground v.1.15,2013-03-25 23:23:00,
2013-03-25 19:24:00,29.6,23.6,29.70,WNW,294,16.0,16.0,78,0.00,,,0.23,Wunderground v.1.15,2013-03-25 23:24:00,
2013-03-25 19:25:00,29.6,23.6,29.70,NW,315,7.0,16.0,78,0.00,,,0.23,Wunderground v.1.15,2013-03-25 23:25:00,
2013-03-25 19:29:00,29.6,23.6,29.70,WNW,290,6.0,16.0,78,0.00,,,0.23,Wunderground v.1.15,2013-03-25 23:29:00,
2013-03-25 19:30:00,29.6,23.6,29.71,NW,320,11.0,11.0,78,0.00,,,0.23,Wunderground v.1.15,2013-03-25 23:30:00,
2013-03-25 19:34:00,29.6,23.9,29.71,WNW,303,10.0,16.0,79,0.00,,,0.23,Wunderground v.1.15,2013-03-25 23:34:00,
2013-03-25 19:35:00,29.5,23.8,29.71,WNW,291,14.0,16.0,79,0.00,,,0.23,Wunderground v.1.15,2013-03-25 23:35:00,
2013-03-25 19:39:00,29.5,23.5,29.71,West,273,10.0,21.0,78,0.00,,,0.23,Wunderground v.1.15,2013-03-25 23:39:00,
2013-03-25 19:40:00,29.5,23.2,29.71,WNW,296,19.0,19.0,77,0.00,,,0.23,Wunderground v.1.15,2013-03-25 23:40:00,
2013-03-25 19:45:00,29.6,23.6,29.71,NW,305,8.0,19.0,78,0.00,,,0.23,Wunderground v.1.15,2013-03-25 23:45:00,
2013-03-25 19:46:00,29.5,23.5,29.72,WSW,240,6.0,19.0,78,0.00,,,0.23,Wunderground v.1.15,2013-03-25 23:46:00,
2013-03-25 19:47:00,29.5,23.8,29.72,WSW,240,11.0,19.0,79,0.00,,,0.23,Wunderground v.1.15,2013-03-25 23:47:00,
2013-03-25 19:50:00,29.4,24.0,29.72,West,278,10.0,10.0,80,0.00,,,0.23,Wunderground v.1.15,2013-03-25 23:50:00,
2013-03-25 19:51:00,29.3,24.2,29.72,NW,306,7.0,11.0,81,0.00,,,0.23,Wunderground v.1.15,2013-03-25 23:51:00,
2013-03-25 19:52:00,29.2,24.1,29.72,WNW,288,8.0,15.0,81,0.00,,,0.23,Wunderground v.1.15,2013-03-25 23:52:00,
2013-03-25 19:55:00,29.0,24.5,29.72,NNW,327,5.0,15.0,83,0.00,,,0.23,Wunderground v.1.15,2013-03-25 23:55:00,
2013-03-25 19:56:00,28.9,24.4,29.72,NW,307,7.0,15.0,83,0.00,,,0.23,Wunderground v.1.15,2013-03-25 23:56:00,
2013-03-25 19:58:00,28.8,24.3,29.72,SW,224,4.0,17.0,83,0.00,,,0.23,Wunderground v.1.15,2013-03-25 23:58:00,
2013-03-25 20:00:00,28.8,24.6,29.72,NW,313,8.0,9.0,84,0.00,,,0.23,Wunderground v.1.15,2013-03-26 00:00:00,
2013-03-25 20:01:00,28.8,24.6,29.72,WNW,299,12.0,14.0,84,0.00,,,0.23,Wunderground v.1.15,2013-03-26 00:01:00,
2013-03-25 20:03:00,28.8,24.6,29.72,West,279,3.0,14.0,84,0.00,,,0.23,Wunderground v.1.15,2013-03-26 00:03:00,
2013-03-25 20:05:00,28.9,23.8,29.73,West,277,8.0,14.0,81,0.00,,,0.23,Wunderground v.1.15,2013-03-26 00:05:00,
2013-03-25 20:06:00,29.0,23.9,29.73,WNW,286,9.0,18.0,81,0.00,,,0.23,Wunderground v.1.15,2013-03-26 00:06:00,
2013-03-25 20:07:00,29.0,23.9,29.73,West,281,11.0,22.0,81,0.00,,,0.23,Wunderground v.1.15,2013-03-26 00:07:00,
2013-03-25 20:08:00,29.1,23.7,29.73,WNW,294,7.0,22.0,80,0.00,,,0.23,Wunderground v.1.15,2013-03-26 00:08:00,
2013-03-25 20:10:00,29.2,23.8,29.72,WNW,298,8.0,10.0,80,0.00,,,0.23,Wunderground v.1.15,2013-03-26 00:10:00,
2013-03-25 20:12:00,29.2,23.8,29.72,West,279,9.0,14.0,80,0.00,,,0.23,Wunderground v.1.15,2013-03-26 00:12:00,
2013-03-25 20:13:00,29.1,23.7,29.73,WNW,300,7.0,14.0,80,0.00,,,0.23,Wunderground v.1.15,2013-03-26 00:13:00,
2013-03-25 20:16:00,29.1,23.7,29.73,WNW,300,7.0,15.0,80,0.00,,,0.23,Wunderground v.1.15,2013-03-26 00:16:00,
2013-03-25 20:17:00,29.1,23.7,29.73,West,261,8.0,15.0,80,0.00,,,0.23,Wunderground v.1.15,2013-03-26 00:17:00,
2013-03-25 20:18:00,29.1,23.7,29.73,West,274,12.0,15.0,80,0.00,,,0.23,Wunderground v.1.15,2013-03-26 00:18:00,
2013-03-25 20:19:00,29.1,23.7,29.73,WNW,290,12.0,18.0,80,0.00,,,0.23,Wunderground v.1.15,2013-03-26 00:19:00,
2013-03-25 20:22:00,29.1,23.7,29.73,WNW,296,11.0,15.0,80,0.00,,,0.23,Wunderground v.1.15,2013-03-26 00:22:00,
2013-03-25 20:23:00,29.1,23.7,29.73,WNW,298,15.0,20.0,80,0.00,,,0.23,Wunderground v.1.15,2013-03-26 00:23:00,
2013-03-25 20:25:00,29.1,23.7,29.73,West,267,6.0,20.0,80,0.00,,,0.23,Wunderground v.1.15,2013-03-26 00:25:00,
2013-03-25 20:28:00,29.1,23.7,29.73,WNW,292,4.0,20.0,80,0.00,,,0.23,Wunderground v.1.15,2013-03-26 00:28:00,
2013-03-25 20:30:00,29.0,23.3,29.73,West,259,11.0,13.0,79,0.00,,,0.23,Wunderground v.1.15,2013-03-26 00:30:00,
2013-03-25 20:33:00,29.1,23.7,29.73,SW,225,8.0,18.0,80,0.00,,,0.23,Wunderground v.1.15,2013-03-26 00:33:00,
2013-03-25 20:35:00,29.1,23.7,29.73,West,268,7.0,18.0,80,0.00,,,0.23,Wunderground v.1.15,2013-03-26 00:35:00,
2013-03-25 20:38:00,29.1,23.4,29.73,WNW,295,8.0,18.0,79,0.00,,,0.23,Wunderground v.1.15,2013-03-26 00:38:00,
2013-03-25 20:40:00,29.1,23.4,29.73,WNW,296,13.0,13.0,79,0.00,,,0.23,Wunderground v.1.15,2013-03-26 00:40:00,
2013-03-25 20:43:00,29.2,23.5,29.73,West,277,14.0,18.0,79,0.00,,,0.23,Wunderground v.1.15,2013-03-26 00:43:00,
2013-03-25 20:45:00,29.2,23.5,29.73,WNW,303,12.0,18.0,79,0.00,,,0.23,Wunderground v.1.15,2013-03-26 00:45:00,
2013-03-25 20:48:00,29.2,23.5,29.74,West,267,9.0,18.0,79,0.00,,,0.23,Wunderground v.1.15,2013-03-26 00:48:00,
2013-03-25 20:49:00,29.2,23.5,29.74,West,271,5.0,18.0,79,0.00,,,0.23,Wunderground v.1.15,2013-03-26 00:49:00,
2013-03-25 20:51:00,29.1,23.7,29.74,WNW,293,8.0,9.0,80,0.00,,,0.23,Wunderground v.1.15,2013-03-26 00:51:00,
2013-03-25 20:53:00,29.1,23.7,29.74,WSW,252,7.0,9.0,80,0.00,,,0.23,Wunderground v.1.15,2013-03-26 00:53:00,
2013-03-25 20:54:00,29.1,23.7,29.74,West,261,7.0,9.0,80,0.00,,,0.23,Wunderground v.1.15,2013-03-26 00:54:00,
2013-03-25 20:56:00,29.0,23.6,29.74,WSW,251,9.0,14.0,80,0.00,,,0.23,Wunderground v.1.15,2013-03-26 00:56:00,
2013-03-25 20:59:00,29.0,23.6,29.74,West,271,11.0,14.0,80,0.00,,,0.23,Wunderground v.1.15,2013-03-26 00:59:00,
2013-03-25 21:01:00,29.0,23.6,29.74,West,274,7.0,11.0,80,0.00,,,0.23,Wunderground v.1.15,2013-03-26 01:01:00,
2013-03-25 21:04:00,29.0,23.6,29.74,WNW,294,9.0,12.0,80,0.00,,,0.23,Wunderground v.1.15,2013-03-26 01:04:00,
2013-03-25 21:06:00,29.0,23.3,29.74,West,281,14.0,19.0,79,0.00,,,0.23,Wunderground v.1.15,2013-03-26 01:06:00,
2013-03-25 21:09:00,29.0,23.3,29.74,West,264,8.0,19.0,79,0.00,,,0.23,Wunderground v.1.15,2013-03-26 01:09:00,
2013-03-25 21:10:00,29.0,23.0,29.74,WNW,297,7.0,9.0,78,0.00,,,0.23,Wunderground v.1.15,2013-03-26 01:10:00,
2013-03-25 21:12:00,29.1,23.1,29.74,West,264,5.0,13.0,78,0.00,,,0.23,Wunderground v.1.15,2013-03-26 01:12:00,
2013-03-25 21:15:00,29.1,22.8,29.74,West,277,10.0,15.0,77,0.00,,,0.23,Wunderground v.1.15,2013-03-26 01:15:00,
2013-03-25 21:18:00,29.2,23.2,29.75,NW,309,12.0,15.0,78,0.00,,,0.23,Wunderground v.1.15,2013-03-26 01:18:00,
2013-03-25 21:20:00,29.1,23.1,29.75,West,281,3.0,9.0,78,0.00,,,0.23,Wunderground v.1.15,2013-03-26 01:20:00,
2013-03-25 21:21:00,29.2,23.2,29.75,WNW,297,9.0,9.0,78,0.00,,,0.23,Wunderground v.1.15,2013-03-26 01:21:00,
2013-03-25 21:24:00,29.0,23.3,29.75,NW,304,7.0,14.0,79,0.00,,,0.23,Wunderground v.1.15,2013-03-26 01:24:00,
2013-03-25 21:25:00,28.9,23.5,29.74,West,263,8.0,17.0,80,0.00,,,0.23,Wunderground v.1.15,2013-03-26 01:25:00,
2013-03-25 21:26:00,28.8,23.4,29.75,NW,313,14.0,17.0,80,0.00,,,0.23,Wunderground v.1.15,2013-03-26 01:26:00,
2013-03-25 21:29:00,28.5,23.4,29.75,West,278,15.0,17.0,81,0.00,,,0.23,Wunderground v.1.15,2013-03-26 01:29:00,
2013-03-25 21:30:00,28.5,23.4,29.75,WNW,299,15.0,19.0,81,0.00,,,0.23,Wunderground v.1.15,2013-03-26 01:30:00,
2013-03-25 21:31:00,28.5,23.4,29.75,WNW,284,7.0,19.0,81,0.00,,,0.23,Wunderground v.1.15,2013-03-26 01:31:00,
2013-03-25 21:32:00,28.4,23.3,29.74,WNW,283,7.0,19.0,81,0.00,,,0.23,Wunderground v.1.15,2013-03-26 01:32:00,
2013-03-25 21:35:00,28.4,23.6,29.74,WNW,295,11.0,20.0,82,0.00,,,0.23,Wunderground v.1.15,2013-03-26 01:35:00,
2013-03-25 21:37:00,28.4,23.6,29.75,West,270,7.0,26.0,82,0.00,,,0.23,Wunderground v.1.15,2013-03-26 01:37:00,
2013-03-25 21:40:00,28.3,23.5,29.75,WNW,290,8.0,12.0,82,0.00,,,0.23,Wunderground v.1.15,2013-03-26 01:40:00,
2013-03-25 21:42:00,28.3,23.8,29.75,WNW,294,8.0,12.0,83,0.00,,,0.23,Wunderground v.1.15,2013-03-26 01:42:00,
2013-03-25 21:43:00,28.3,23.8,29.75,WNW,293,9.0,12.0,83,0.00,,,0.23,Wunderground v.1.15,2013-03-26 01:43:00,
2013-03-25 21:46:00,28.2,23.7,29.75,WNW,289,13.0,15.0,83,0.00,,,0.23,Wunderground v.1.15,2013-03-26 01:46:00,
2013-03-25 21:48:00,28.1,23.6,29.75,SSW,201,7.0,15.0,83,0.00,,,0.23,Wunderground v.1.15,2013-03-26 01:48:00,
2013-03-25 21:51:00,28.1,23.6,29.75,WNW,291,16.0,16.0,83,0.00,,,0.23,Wunderground v.1.15,2013-03-26 01:51:00,
2013-03-25 21:53:00,28.1,23.6,29.75,West,273,5.0,16.0,83,0.00,,,0.23,Wunderground v.1.15,2013-03-26 01:53:00,
2013-03-25 21:56:00,28.1,23.3,29.75,NW,313,9.0,21.0,82,0.00,,,0.23,Wunderground v.1.15,2013-03-26 01:56:00,
2013-03-25 21:57:00,28.1,23.3,29.75,West,279,14.0,21.0,82,0.00,,,0.23,Wunderground v.1.15,2013-03-26 01:57:00,
2013-03-25 21:58:00,28.2,23.1,29.76,WNW,288,10.0,21.0,81,0.00,,,0.23,Wunderground v.1.15,2013-03-26 01:58:00,
2013-03-25 21:59:00,28.2,23.1,29.76,NW,304,5.0,21.0,81,0.00,,,0.23,Wunderground v.1.15,2013-03-26 01:59:00,
2013-03-25 22:02:00,28.2,23.1,29.76,WNW,298,5.0,12.0,81,0.00,,,0.23,Wunderground v.1.15,2013-03-26 02:02:00,
2013-03-25 22:03:00,28.2,23.1,29.75,WNW,294,11.0,15.0,81,0.00,,,0.23,Wunderground v.1.15,2013-03-26 02:03:00,
2013-03-25 22:04:00,28.2,23.1,29.75,West,259,16.0,18.0,81,0.00,,,0.23,Wunderground v.1.15,2013-03-26 02:04:00,
2013-03-25 22:07:00,28.2,22.8,29.76,West,265,6.0,18.0,80,0.00,,,0.23,Wunderground v.1.15,2013-03-26 02:07:00,
2013-03-25 22:08:00,28.2,22.8,29.76,WNW,289,8.0,18.0,80,0.00,,,0.23,Wunderground v.1.15,2013-03-26 02:08:00,
2013-03-25 22:09:00,28.3,22.9,29.76,WNW,294,9.0,18.0,80,0.00,,,0.23,Wunderground v.1.15,2013-03-26 02:09:00,
2013-03-25 22:13:00,28.3,22.6,29.76,WNW,291,10.0,14.0,79,0.00,,,0.23,Wunderground v.1.15,2013-03-26 02:13:00,
2013-03-25 22:14:00,28.3,22.6,29.76,NW,306,5.0,14.0,79,0.00,,,0.23,Wunderground v.1.15,2013-03-26 02:14:00,
2013-03-25 22:15:00,28.3,22.6,29.76,WNW,302,7.0,14.0,79,0.00,,,0.23,Wunderground v.1.15,2013-03-26 02:15:00,
2013-03-25 22:18:00,28.4,22.7,29.76,WNW,296,4.0,16.0,79,0.00,,,0.23,Wunderground v.1.15,2013-03-26 02:18:00,
2013-03-25 22:19:00,28.5,22.5,29.76,West,279,11.0,21.0,78,0.00,,,0.23,Wunderground v.1.15,2013-03-26 02:19:00,
2013-03-25 22:20:00,28.5,22.5,29.77,NW,314,9.0,16.0,78,0.00,,,0.23,Wunderground v.1.15,2013-03-26 02:20:00,
2013-03-25 22:23:00,28.5,22.5,29.77,WNW,288,11.0,23.0,78,0.00,,,0.23,Wunderground v.1.15,2013-03-26 02:23:00,
2013-03-25 22:24:00,28.5,22.5,29.76,WNW,298,9.0,23.0,78,0.00,,,0.23,Wunderground v.1.15,2013-03-26 02:24:00,
2013-03-25 22:25:00,28.5,22.5,29.77,WNW,284,8.0,23.0,78,0.00,,,0.23,Wunderground v.1.15,2013-03-26 02:25:00,
2013-03-25 22:26:00,28.6,22.6,29.77,West,265,7.0,23.0,78,0.00,,,0.23,Wunderground v.1.15,2013-03-26 02:26:00,
2013-03-25 22:28:00,28.6,22.3,29.77,NNW,339,10.0,23.0,77,0.00,,,0.23,Wunderground v.1.15,2013-03-26 02:28:00,
2013-03-25 22:30:00,28.7,22.4,29.77,WNW,287,9.0,11.0,77,0.00,,,0.23,Wunderground v.1.15,2013-03-26 02:30:00,
2013-03-25 22:32:00,28.6,22.3,29.77,West,277,7.0,13.0,77,0.00,,,0.23,Wunderground v.1.15,2013-03-26 02:32:00,
2013-03-25 22:33:00,28.6,22.3,29.77,West,262,9.0,18.0,77,0.00,,,0.23,Wunderground v.1.15,2013-03-26 02:33:00,
2013-03-25 22:35:00,28.6,22.3,29.77,WNW,302,7.0,18.0,77,0.00,,,0.23,Wunderground v.1.15,2013-03-26 02:35:00,
2013-03-25 22:37:00,28.6,22.3,29.77,WNW,299,15.0,18.0,77,0.00,,,0.23,Wunderground v.1.15,2013-03-26 02:37:00,
2013-03-25 22:38:00,28.6,22.3,29.77,WSW,254,14.0,18.0,77,0.00,,,0.23,Wunderground v.1.15,2013-03-26 02:38:00,
2013-03-25 22:40:00,28.7,22.4,29.77,NW,305,9.0,11.0,77,0.00,,,0.23,Wunderground v.1.15,2013-03-26 02:40:00,
2013-03-25 22:41:00,28.7,22.4,29.77,West,281,6.0,11.0,77,0.00,,,0.23,Wunderground v.1.15,2013-03-26 02:41:00,
2013-03-25 22:42:00,28.7,22.1,29.77,NNE,17,8.0,11.0,76,0.00,,,0.23,Wunderground v.1.15,2013-03-26 02:42:00,
2013-03-25 22:43:00,28.8,22.5,29.77,West,277,5.0,11.0,77,0.00,,,0.23,Wunderground v.1.15,2013-03-26 02:43:00,
2013-03-25 22:45:00,28.7,22.4,29.77,NW,319,16.0,16.0,77,0.00,,,0.23,Wunderground v.1.15,2013-03-26 02:45:00,
2013-03-25 22:47:00,28.8,22.5,29.77,West,281,9.0,16.0,77,0.00,,,0.23,Wunderground v.1.15,2013-03-26 02:47:00,
2013-03-25 22:48:00,28.8,22.5,29.77,NW,314,9.0,16.0,77,0.00,,,0.23,Wunderground v.1.15,2013-03-26 02:48:00,
2013-03-25 22:50:00,28.8,22.5,29.77,WNW,290,8.0,16.0,77,0.00,,,0.23,Wunderground v.1.15,2013-03-26 02:50:00,
2013-03-25 22:52:00,28.8,22.5,29.77,WNW,284,12.0,16.0,77,0.00,,,0.23,Wunderground v.1.15,2013-03-26 02:52:00,
2013-03-25 22:53:00,28.8,22.5,29.77,WNW,294,9.0,16.0,77,0.00,,,0.23,Wunderground v.1.15,2013-03-26 02:53:00,
2013-03-25 22:55:00,28.8,22.5,29.77,WNW,295,7.0,16.0,77,0.00,,,0.23,Wunderground v.1.15,2013-03-26 02:55:00,
2013-03-25 22:57:00,28.8,22.5,29.77,West,267,4.0,16.0,77,0.00,,,0.23,Wunderground v.1.15,2013-03-26 02:57:00,
2013-03-25 22:58:00,28.8,22.5,29.77,West,267,6.0,16.0,77,0.00,,,0.23,Wunderground v.1.15,2013-03-26 02:58:00,
2013-03-25 23:00:00,28.8,22.5,29.77,NNE,15,4.0,12.0,77,0.00,,,0.23,Wunderground v.1.15,2013-03-26 03:00:00,
2013-03-25 23:02:00,28.8,22.5,29.77,West,272,6.0,13.0,77,0.00,,,0.23,Wunderground v.1.15,2013-03-26 03:02:00,
2013-03-25 23:04:00,28.8,22.5,29.77,NW,311,7.0,13.0,77,0.00,,,0.23,Wunderground v.1.15,2013-03-26 03:04:00,
2013-03-25 23:05:00,28.9,22.6,29.77,West,281,8.0,17.0,77,0.00,,,0.23,Wunderground v.1.15,2013-03-26 03:05:00,
2013-03-25 23:06:00,28.8,22.5,29.77,West,259,8.0,17.0,77,0.00,,,0.23,Wunderground v.1.15,2013-03-26 03:06:00,
2013-03-25 23:07:00,28.8,22.5,29.77,NW,316,6.0,17.0,77,0.00,,,0.23,Wunderground v.1.15,2013-03-26 03:07:00,
2013-03-25 23:09:00,28.9,22.6,29.77,WNW,287,8.0,17.0,77,0.00,,,0.23,Wunderground v.1.15,2013-03-26 03:09:00,
2013-03-25 23:11:00,28.9,22.6,29.77,WNW,295,17.0,17.0,77,0.00,,,0.23,Wunderground v.1.15,2013-03-26 03:11:00,
2013-03-25 23:12:00,28.9,22.6,29.77,NW,304,11.0,20.0,77,0.00,,,0.23,Wunderground v.1.15,2013-03-26 03:12:00,
2013-03-25 23:14:00,28.9,22.6,29.77,WNW,297,12.0,20.0,77,0.00,,,0.23,Wunderground v.1.15,2013-03-26 03:14:00,
2013-03-25 23:16:00,28.9,22.6,29.77,WNW,286,7.0,20.0,77,0.00,,,0.23,Wunderground v.1.15,2013-03-26 03:16:00,
2013-03-25 23:17:00,28.9,22.6,29.77,WNW,298,5.0,20.0,77,0.00,,,0.23,Wunderground v.1.15,2013-03-26 03:17:00,
2013-03-25 23:18:00,28.9,22.6,29.77,West,280,9.0,20.0,77,0.00,,,0.23,Wunderground v.1.15,2013-03-26 03:18:00,
2013-03-25 23:19:00,29.0,22.7,29.77,NW,318,9.0,20.0,77,0.00,,,0.23,Wunderground v.1.15,2013-03-26 03:19:00,
2013-03-25 23:22:00,28.9,22.9,29.77,NW,311,11.0,23.0,78,0.00,,,0.23,Wunderground v.1.15,2013-03-26 03:22:00,
2013-03-25 23:23:00,28.9,22.6,29.77,West,278,13.0,23.0,77,0.00,,,0.23,Wunderground v.1.15,2013-03-26 03:23:00,
2013-03-25 23:24:00,28.9,22.6,29.77,West,266,8.0,23.0,77,0.00,,,0.23,Wunderground v.1.15,2013-03-26 03:24:00,
2013-03-25 23:27:00,28.9,22.6,29.78,NW,310,7.0,23.0,77,0.00,,,0.23,Wunderground v.1.15,2013-03-26 03:27:00,
2013-03-25 23:28:00,29.0,22.7,29.77,WNW,294,7.0,23.0,77,0.00,,,0.23,Wunderground v.1.15,2013-03-26 03:28:00,
2013-03-25 23:29:00,29.0,22.7,29.78,NW,311,11.0,23.0,77,0.00,,,0.23,Wunderground v.1.15,2013-03-26 03:29:00,
2013-03-25 23:32:00,29.0,22.7,29.78,WNW,286,7.0,13.0,77,0.00,,,0.23,Wunderground v.1.15,2013-03-26 03:32:00,
2013-03-25 23:34:00,29.0,22.7,29.78,North,355,13.0,15.0,77,0.00,,,0.23,Wunderground v.1.15,2013-03-26 03:34:00,
2013-03-25 23:37:00,29.0,22.7,29.78,WNW,302,9.0,15.0,77,0.00,,,0.23,Wunderground v.1.15,2013-03-26 03:37:00,
2013-03-25 23:39:00,29.0,22.7,29.78,West,260,7.0,15.0,77,0.00,,,0.23,Wunderground v.1.15,2013-03-26 03:39:00,
2013-03-25 23:41:00,29.0,22.7,29.78,WNW,292,4.0,15.0,77,0.00,,,0.23,Wunderground v.1.15,2013-03-26 03:41:00,
2013-03-25 23:43:00,29.0,22.7,29.78,WNW,292,9.0,15.0,77,0.00,,,0.23,Wunderground v.1.15,2013-03-26 03:43:00,
2013-03-25 23:44:00,29.0,23.0,29.78,WNW,302,6.0,15.0,78,0.00,,,0.23,Wunderground v.1.15,2013-03-26 03:44:00,
2013-03-25 23:46:00,29.0,22.7,29.78,WNW,290,12.0,20.0,77,0.00,,,0.23,Wunderground v.1.15,2013-03-26 03:46:00,
2013-03-25 23:48:00,29.0,22.7,29.78,West,280,9.0,20.0,77,0.00,,,0.23,Wunderground v.1.15,2013-03-26 03:48:00,
2013-03-25 23:49:00,29.1,22.8,29.78,West,262,5.0,20.0,77,0.00,,,0.23,Wunderground v.1.15,2013-03-26 03:49:00,
2013-03-25 23:50:00,29.0,22.7,29.78,WNW,290,4.0,9.0,77,0.00,,,0.23,Wunderground v.1.15,2013-03-26 03:50:00,
2013-03-25 23:51:00,29.1,22.8,29.78,WNW,285,5.0,9.0,77,0.00,,,0.23,Wunderground v.1.15,2013-03-26 03:51:00,
2013-03-25 23:53:00,29.1,22.8,29.78,West,269,6.0,15.0,77,0.00,,,0.23,Wunderground v.1.15,2013-03-26 03:53:00,
2013-03-25 23:55:00,29.1,22.8,29.78,NW,321,16.0,20.0,77,0.00,,,0.23,Wunderground v.1.15,2013-03-26 03:55:00,
2013-03-25 23:56:00,29.1,22.8,29.78,WNW,282,9.0,20.0,77,0.00,,,0.23,Wunderground v.1.15,2013-03-26 03:56:00,
2013-03-25 23:59:00,29.1,22.8,29.78,West,265,9.0,20.0,77,0.00,,,0.23,Wunderground v.1.15,2013-03-26 03:59:00,